Time,TemperatureF,DewpointF,PressureIn,WindDirection,WindDirectionDegrees,WindSpeedMPH,WindSpeedGustMPH,Humidity,HourlyPrecipIn,Conditions,Clouds,dailyrainin,SoftwareType,DateUTC
2013-01-10 00:00:00,42.2,30.5,30.03,WNW,288,0.0,0.0,63,0.00,,SKC,0.00,VWS V14.01,2013-01-10 05:00:00,
2013-01-10 00:01:00,42.2,30.5,30.03,WNW,288,0.0,0.0,63,0.00,,SKC,0.00,VWS V14.01,2013-01-10 05:01:00,
2013-01-10 00:05:00,42.2,30.5,30.03,WNW,287,0.0,1.0,63,0.00,,SKC,0.00,VWS V14.01,2013-01-10 05:05:00,
2013-01-10 00:06:00,42.2,30.5,30.03,WNW,291,0.0,1.0,63,0.00,,SKC,0.00,VWS V14.01,2013-01-10 05:06:00,
2013-01-10 00:10:00,41.9,30.2,30.03,WNW,298,1.0,2.0,63,0.00,,SKC,0.00,VWS V14.01,2013-01-10 05:10:00,
2013-01-10 00:11:00,41.9,30.2,30.03,WNW,298,0.0,2.0,63,0.00,,SKC,0.00,VWS V14.01,2013-01-10 05:11:00,
2013-01-10 00:15:00,41.8,30.1,30.03,WNW,299,5.0,5.0,63,0.00,,SKC,0.00,VWS V14.01,2013-01-10 05:15:00,
2013-01-10 00:16:00,41.8,30.1,30.03,WNW,289,0.0,5.0,63,0.00,,SKC,0.00,VWS V14.01,2013-01-10 05:16:00,
2013-01-10 00:20:00,41.8,30.1,30.03,WNW,298,0.0,0.0,63,0.00,,SKC,0.00,VWS V14.01,2013-01-10 05:20:00,
2013-01-10 00:21:00,41.8,30.1,30.03,WNW,298,0.0,0.0,63,0.00,,SKC,0.00,VWS V14.01,2013-01-10 05:21:00,
2013-01-10 00:25:00,41.6,30.3,30.03,NW,304,0.0,0.0,64,0.00,,SKC,0.00,VWS V14.01,2013-01-10 05:25:00,
2013-01-10 00:26:00,41.6,30.3,30.03,WNW,292,2.0,2.0,64,0.00,,SKC,0.00,VWS V14.01,2013-01-10 05:26:00,
2013-01-10 00:27:00,41.6,30.3,30.03,WNW,287,2.0,2.0,64,0.00,,SKC,0.00,VWS V14.01,2013-01-10 05:27:00,
2013-01-10 00:30:00,41.6,30.0,30.03,WNW,298,0.0,2.0,63,0.00,,SKC,0.00,VWS V14.01,2013-01-10 05:30:00,
2013-01-10 00:31:00,41.6,30.0,30.03,WNW,295,0.0,1.0,63,0.00,,SKC,0.00,VWS V14.01,2013-01-10 05:31:00,
2013-01-10 00:32:00,41.6,30.0,30.03,WNW,296,0.0,1.0,63,0.00,,SKC,0.00,VWS V14.01,2013-01-10 05:32:00,
2013-01-10 00:35:00,41.8,29.8,30.03,WNW,291,0.0,2.0,62,0.00,,SKC,0.00,VWS V14.01,2013-01-10 05:35:00,
2013-01-10 00:36:00,41.6,30.0,30.03,WNW,288,1.0,2.0,63,0.00,,SKC,0.00,VWS V14.01,2013-01-10 05:36:00,
2013-01-10 00:37:00,41.6,30.0,30.03,WNW,288,1.0,2.0,63,0.00,,SKC,0.00,VWS V14.01,2013-01-10 05:37:00,
2013-01-10 00:40:00,41.6,30.0,30.03,WNW,288,1.0,2.0,63,0.00,,SKC,0.00,VWS V14.01,2013-01-10 05:40:00,
2013-01-10 00:41:00,41.6,29.6,30.03,WNW,294,2.0,2.0,62,0.00,,SKC,0.00,VWS V14.01,2013-01-10 05:41:00,
2013-01-10 00:42:00,41.6,29.6,30.03,WNW,291,0.0,2.0,62,0.00,,SKC,0.00,VWS V14.01,2013-01-10 05:42:00,
2013-01-10 00:43:00,41.6,29.6,30.03,WNW,282,3.0,3.0,62,0.00,,SKC,0.00,VWS V14.01,2013-01-10 05:43:00,
2013-01-10 00:45:00,41.8,29.8,30.04,WNW,289,0.0,3.0,62,0.00,,SKC,0.00,VWS V14.01,2013-01-10 05:45:00,
2013-01-10 00:47:00,41.8,29.8,30.04,West,278,0.0,2.0,62,0.00,,SKC,0.00,VWS V14.01,2013-01-10 05:47:00,
2013-01-10 00:48:00,41.8,29.8,30.04,WNW,296,1.0,2.0,62,0.00,,SKC,0.00,VWS V14.01,2013-01-10 05:48:00,
2013-01-10 00:50:00,41.8,29.8,30.04,WNW,292,0.0,2.0,62,0.00,,SKC,0.00,VWS V14.01,2013-01-10 05:50:00,
2013-01-10 00:52:00,41.6,29.6,30.04,WNW,296,2.0,2.0,62,0.00,,SKC,0.00,VWS V14.01,2013-01-10 05:52:00,
2013-01-10 00:53:00,41.6,29.6,30.04,WNW,298,0.0,2.0,62,0.00,,SKC,0.00,VWS V14.01,2013-01-10 05:53:00,
2013-01-10 00:55:00,41.6,29.6,30.04,WNW,282,0.0,2.0,62,0.00,,SKC,0.00,VWS V14.01,2013-01-10 05:55:00,
2013-01-10 00:57:00,41.6,29.2,30.04,West,281,0.0,0.0,61,0.00,,SKC,0.00,VWS V14.01,2013-01-10 05:57:00,
2013-01-10 00:58:00,41.6,29.2,30.04,West,280,0.0,0.0,61,0.00,,SKC,0.00,VWS V14.01,2013-01-10 05:58:00,
2013-01-10 01:00:00,41.6,29.2,30.04,West,281,0.0,0.0,61,0.00,,SKC,0.00,VWS V14.01,2013-01-10 06:00:00,
2013-01-10 01:02:00,41.6,29.2,30.04,WNW,292,1.0,4.0,61,0.00,,SKC,0.00,VWS V14.01,2013-01-10 06:02:00,
2013-01-10 01:03:00,41.6,29.2,30.04,NW,315,1.0,4.0,61,0.00,,SKC,0.00,VWS V14.01,2013-01-10 06:03:00,
2013-01-10 01:04:00,41.6,29.2,30.04,NW,315,0.0,4.0,61,0.00,,SKC,0.00,VWS V14.01,2013-01-10 06:04:00,
2013-01-10 01:05:00,41.6,29.2,30.04,NW,315,0.0,4.0,61,0.00,,SKC,0.00,VWS V14.01,2013-01-10 06:05:00,
2013-01-10 01:07:00,41.5,29.1,30.04,West,278,0.0,2.0,61,0.00,,SKC,0.00,VWS V14.01,2013-01-10 06:07:00,
2013-01-10 01:08:00,41.5,29.1,30.04,NW,311,2.0,3.0,61,0.00,,SKC,0.00,VWS V14.01,2013-01-10 06:08:00,
2013-01-10 01:09:00,41.5,29.1,30.04,WNW,282,0.0,3.0,61,0.00,,SKC,0.00,VWS V14.01,2013-01-10 06:09:00,
2013-01-10 01:10:00,41.5,29.1,30.04,WNW,285,0.0,3.0,61,0.00,,SKC,0.00,VWS V14.01,2013-01-10 06:10:00,
2013-01-10 01:13:00,41.5,29.1,30.04,WNW,294,0.0,3.0,61,0.00,,SKC,0.00,VWS V14.01,2013-01-10 06:13:00,
2013-01-10 01:14:00,41.5,29.1,30.04,NW,309,2.0,5.0,61,0.00,,SKC,0.00,VWS V14.01,2013-01-10 06:14:00,
2013-01-10 01:15:00,41.5,28.7,30.04,WNW,301,1.0,5.0,60,0.00,,SKC,0.00,VWS V14.01,2013-01-10 06:15:00,
2013-01-10 01:18:00,41.5,28.7,30.04,WNW,287,0.0,4.0,60,0.00,,SKC,0.00,VWS V14.01,2013-01-10 06:18:00,
2013-01-10 01:19:00,41.5,28.7,30.04,WNW,285,0.0,4.0,60,0.00,,SKC,0.00,VWS V14.01,2013-01-10 06:19:00,
2013-01-10 01:20:00,41.5,28.7,30.04,WNW,287,0.0,0.0,60,0.00,,SKC,0.00,VWS V14.01,2013-01-10 06:20:00,
2013-01-10 01:23:00,41.3,28.5,30.04,WNW,289,0.0,0.0,60,0.00,,SKC,0.00,VWS V14.01,2013-01-10 06:23:00,
2013-01-10 01:24:00,41.3,28.1,30.04,WNW,288,0.0,0.0,59,0.00,,SKC,0.00,VWS V14.01,2013-01-10 06:24:00,
2013-01-10 01:25:00,41.3,28.1,30.04,WNW,291,0.0,0.0,59,0.00,,SKC,0.00,VWS V14.01,2013-01-10 06:25:00,
2013-01-10 01:28:00,41.2,28.0,30.04,WNW,292,0.0,0.0,59,0.00,,SKC,0.00,VWS V14.01,2013-01-10 06:28:00,
2013-01-10 01:29:00,41.2,28.0,30.04,WNW,292,0.0,0.0,59,0.00,,SKC,0.00,VWS V14.01,2013-01-10 06:29:00,
2013-01-10 01:30:00,41.2,28.4,30.04,WNW,289,0.0,0.0,60,0.00,,SKC,0.00,VWS V14.01,2013-01-10 06:30:00,
2013-01-10 01:31:00,41.1,28.3,30.04,WNW,289,0.0,0.0,60,0.00,,SKC,0.00,VWS V14.01,2013-01-10 06:31:00,
2013-01-10 01:33:00,40.9,28.1,30.04,WNW,289,0.0,0.0,60,0.00,,SKC,0.00,VWS V14.01,2013-01-10 06:33:00,
2013-01-10 01:34:00,40.9,28.1,30.04,WNW,291,0.0,0.0,60,0.00,,SKC,0.00,VWS V14.01,2013-01-10 06:34:00,
2013-01-10 01:35:00,40.8,28.0,30.04,WNW,298,2.0,2.0,60,0.00,,SKC,0.00,VWS V14.01,2013-01-10 06:35:00,
2013-01-10 01:36:00,40.8,28.0,30.04,WNW,298,3.0,3.0,60,0.00,,SKC,0.00,VWS V14.01,2013-01-10 06:36:00,
2013-01-10 01:39:00,40.8,27.2,30.04,WNW,299,0.0,3.0,58,0.00,,SKC,0.00,VWS V14.01,2013-01-10 06:39:00,
2013-01-10 01:40:00,40.8,27.2,30.04,WNW,301,0.0,3.0,58,0.00,,SKC,0.00,VWS V14.01,2013-01-10 06:40:00,
2013-01-10 01:41:00,40.9,26.9,30.04,WNW,284,1.0,3.0,57,0.00,,SKC,0.00,VWS V14.01,2013-01-10 06:41:00,
2013-01-10 01:42:00,40.9,26.9,30.04,West,281,2.0,4.0,57,0.00,,SKC,0.00,VWS V14.01,2013-01-10 06:42:00,
2013-01-10 01:44:00,41.1,26.6,30.04,NW,323,1.0,4.0,56,0.00,,SKC,0.00,VWS V14.01,2013-01-10 06:44:00,
2013-01-10 01:45:00,41.1,26.6,30.04,NW,322,0.0,4.0,56,0.00,,SKC,0.00,VWS V14.01,2013-01-10 06:45:00,
2013-01-10 01:46:00,41.2,26.7,30.04,NW,322,0.0,0.0,56,0.00,,SKC,0.00,VWS V14.01,2013-01-10 06:46:00,
2013-01-10 01:47:00,41.2,26.7,30.04,NW,316,0.0,0.0,56,0.00,,SKC,0.00,VWS V14.01,2013-01-10 06:47:00,
2013-01-10 01:49:00,41.2,26.7,30.04,WSW,258,0.0,3.0,56,0.00,,SKC,0.00,VWS V14.01,2013-01-10 06:49:00,
2013-01-10 01:50:00,42.2,24.9,30.09,North,357,1.0,8.0,50,0.00,,SKC,0.00,VWS V14.01,2013-01-10 06:50:00,
2013-01-10 01:51:00,41.3,26.4,30.04,WSW,244,0.0,0.0,55,0.00,,SKC,0.00,VWS V14.01,2013-01-10 06:51:00,
2013-01-10 01:52:00,41.3,26.4,30.04,WSW,243,0.0,0.0,55,0.00,,SKC,0.00,VWS V14.01,2013-01-10 06:52:00,
2013-01-10 01:54:00,41.3,25.9,30.04,WNW,287,0.0,0.0,54,0.00,,SKC,0.00,VWS V14.01,2013-01-10 06:54:00,
2013-01-10 01:55:00,41.3,25.9,30.04,NW,306,0.0,0.0,54,0.00,,SKC,0.00,VWS V14.01,2013-01-10 06:55:00,
2013-01-10 01:57:00,41.3,25.0,30.04,NW,309,2.0,2.0,52,0.00,,SKC,0.00,VWS V14.01,2013-01-10 06:57:00,
2013-01-10 01:58:00,41.5,25.2,30.04,NW,312,0.0,4.0,52,0.00,,SKC,0.00,VWS V14.01,2013-01-10 06:58:00,
2013-01-10 01:59:00,41.6,25.3,30.05,NW,312,0.0,0.0,52,0.00,,SKC,0.00,VWS V14.01,2013-01-10 06:59:00,
2013-01-10 02:00:00,41.6,25.3,30.05,NW,312,0.0,4.0,52,0.00,,SKC,0.00,VWS V14.01,2013-01-10 07:00:00,
2013-01-10 02:01:00,41.8,25.5,30.05,WNW,287,5.0,5.0,52,0.00,,SKC,0.00,VWS V14.01,2013-01-10 07:01:00,
2013-01-10 02:02:00,41.8,25.5,30.05,WNW,282,2.0,5.0,52,0.00,,SKC,0.00,VWS V14.01,2013-01-10 07:02:00,
2013-01-10 02:03:00,41.9,25.1,30.05,NW,315,2.0,5.0,51,0.00,,SKC,0.00,VWS V14.01,2013-01-10 07:03:00,
2013-01-10 02:05:00,42.1,25.3,30.05,WNW,291,1.0,4.0,51,0.00,,SKC,0.00,VWS V14.01,2013-01-10 07:05:00,
2013-01-10 02:06:00,42.2,25.4,30.05,NW,322,0.0,5.0,51,0.00,,SKC,0.00,VWS V14.01,2013-01-10 07:06:00,
2013-01-10 02:07:00,42.2,25.4,30.05,SW,220,1.0,5.0,51,0.00,,SKC,0.00,VWS V14.01,2013-01-10 07:07:00,
2013-01-10 02:08:00,42.2,25.4,30.05,WNW,302,1.0,5.0,51,0.00,,SKC,0.00,VWS V14.01,2013-01-10 07:08:00,
2013-01-10 02:10:00,41.6,25.3,30.10,NNW,336,0.0,7.0,52,0.00,,SKC,0.00,VWS V14.01,2013-01-10 07:10:00,
2013-01-10 02:11:00,42.2,25.9,30.05,NW,313,3.0,10.0,52,0.00,,SKC,0.00,VWS V14.01,2013-01-10 07:11:00,
2013-01-10 02:13:00,42.3,25.9,30.05,WNW,295,0.0,10.0,52,0.00,,SKC,0.00,VWS V14.01,2013-01-10 07:13:00,
2013-01-10 02:15:00,42.3,25.5,30.05,NW,318,3.0,10.0,51,0.00,,SKC,0.00,VWS V14.01,2013-01-10 07:15:00,
2013-01-10 02:16:00,42.5,25.2,30.05,West,272,2.0,7.0,50,0.00,,SKC,0.00,VWS V14.01,2013-01-10 07:16:00,
2013-01-10 02:18:00,42.6,25.3,30.05,NNW,336,5.0,12.0,50,0.00,,SKC,0.00,VWS V14.01,2013-01-10 07:18:00,
2013-01-10 02:20:00,42.9,25.6,30.05,West,275,3.0,12.0,50,0.00,,SKC,0.00,VWS V14.01,2013-01-10 07:20:00,
2013-01-10 02:21:00,43.1,25.7,30.05,NW,322,1.0,5.0,50,0.00,,SKC,0.00,VWS V14.01,2013-01-10 07:21:00,
2013-01-10 02:22:00,43.1,25.7,30.05,SE,140,1.0,5.0,50,0.00,,SKC,0.00,VWS V14.01,2013-01-10 07:22:00,
2013-01-10 02:23:00,43.1,26.2,30.05,SE,130,0.0,5.0,51,0.00,,SKC,0.00,VWS V14.01,2013-01-10 07:23:00,
2013-01-10 02:25:00,43.1,26.2,30.05,NNW,339,3.0,5.0,51,0.00,,SKC,0.00,VWS V14.01,2013-01-10 07:25:00,
2013-01-10 02:27:00,43.1,26.2,30.05,NW,313,3.0,12.0,51,0.00,,SKC,0.00,VWS V14.01,2013-01-10 07:27:00,
2013-01-10 02:28:00,43.1,26.2,30.05,NW,325,6.0,12.0,51,0.00,,SKC,0.00,VWS V14.01,2013-01-10 07:28:00,
2013-01-10 02:29:00,43.1,26.2,30.08,South,169,2.0,12.0,51,0.00,,SKC,0.00,VWS V14.01,2013-01-10 07:29:00,
2013-01-10 02:30:00,41.1,25.3,30.11,West,277,2.0,7.0,53,0.00,,SKC,0.00,VWS V14.01,2013-01-10 07:30:00,
2013-01-10 02:32:00,43.1,26.2,30.08,NW,322,3.0,10.0,51,0.00,,SKC,0.00,VWS V14.01,2013-01-10 07:32:00,
2013-01-10 02:34:00,43.1,25.7,30.08,NW,312,5.0,10.0,50,0.00,,SKC,0.00,VWS V14.01,2013-01-10 07:34:00,
2013-01-10 02:35:00,43.1,25.7,30.08,NW,319,7.0,13.0,50,0.00,,SKC,0.00,VWS V14.01,2013-01-10 07:35:00,
2013-01-10 02:37:00,43.1,25.3,30.08,NW,322,2.0,13.0,49,0.00,,SKC,0.00,VWS V14.01,2013-01-10 07:37:00,
2013-01-10 02:39:00,42.9,25.1,30.08,West,271,0.0,13.0,49,0.00,,SKC,0.00,VWS V14.01,2013-01-10 07:39:00,
2013-01-10 02:40:00,42.9,25.6,30.08,NNW,332,3.0,3.0,50,0.00,,SKC,0.00,VWS V14.01,2013-01-10 07:40:00,
2013-01-10 02:41:00,42.8,25.5,30.08,NW,315,3.0,6.0,50,0.00,,SKC,0.00,VWS V14.01,2013-01-10 07:41:00,
2013-01-10 02:42:00,42.6,25.3,30.08,SSE,152,2.0,6.0,50,0.00,,SKC,0.00,VWS V14.01,2013-01-10 07:42:00,
2013-01-10 02:44:00,42.5,25.2,30.09,NNW,328,2.0,6.0,50,0.00,,SKC,0.00,VWS V14.01,2013-01-10 07:44:00,
2013-01-10 02:45:00,42.5,25.2,30.09,NW,322,4.0,4.0,50,0.00,,SKC,0.00,VWS V14.01,2013-01-10 07:45:00,
2013-01-10 02:47:00,42.3,25.5,30.09,WNW,302,2.0,5.0,51,0.00,,SKC,0.00,VWS V14.01,2013-01-10 07:47:00,
2013-01-10 02:48:00,42.3,25.5,30.09,NNW,344,5.0,8.0,51,0.00,,SKC,0.00,VWS V14.01,2013-01-10 07:48:00,
2013-01-10 02:49:00,42.2,24.9,30.09,North,357,0.0,8.0,50,0.00,,SKC,0.00,VWS V14.01,2013-01-10 07:49:00,
2013-01-10 02:50:00,42.2,25.4,30.09,NW,323,1.0,4.0,51,0.00,,SKC,0.00,VWS V14.01,2013-01-10 07:50:00,
2013-01-10 02:53:00,42.1,24.8,30.09,West,274,0.0,6.0,50,0.00,,SKC,0.00,VWS V14.01,2013-01-10 07:53:00,
2013-01-10 02:54:00,41.9,24.6,30.09,WNW,292,1.0,6.0,50,0.00,,SKC,0.00,VWS V14.01,2013-01-10 07:54:00,
2013-01-10 02:55:00,41.9,25.1,30.09,WNW,284,2.0,14.0,51,0.00,,SKC,0.00,VWS V14.01,2013-01-10 07:55:00,
2013-01-10 02:58:00,41.8,25.0,30.09,NW,305,2.0,14.0,51,0.00,,SKC,0.00,VWS V14.01,2013-01-10 07:58:00,
2013-01-10 02:59:00,41.8,25.5,30.10,SE,143,1.0,14.0,52,0.00,,SKC,0.00,VWS V14.01,2013-01-10 07:59:00,
2013-01-10 03:00:00,40.9,24.6,30.13,North,357,2.0,6.0,52,0.00,,SKC,0.00,VWS V14.01,2013-01-10 08:00:00,
2013-01-10 03:01:00,41.6,24.8,30.10,NW,322,1.0,2.0,51,0.00,,SKC,0.00,VWS V14.01,2013-01-10 08:01:00,
2013-01-10 03:04:00,41.6,25.3,30.10,NW,305,3.0,13.0,52,0.00,,SKC,0.00,VWS V14.01,2013-01-10 08:04:00,
2013-01-10 03:05:00,41.6,25.3,30.10,NNW,347,5.0,5.0,52,0.00,,SKC,0.00,VWS V14.01,2013-01-10 08:05:00,
2013-01-10 03:06:00,41.6,24.8,30.10,NW,320,2.0,7.0,51,0.00,,SKC,0.00,VWS V14.01,2013-01-10 08:06:00,
2013-01-10 03:09:00,41.6,25.3,30.10,NNW,336,1.0,7.0,52,0.00,,SKC,0.00,VWS V14.01,2013-01-10 08:09:00,
2013-01-10 03:10:00,41.5,25.2,30.10,North,353,2.0,2.0,52,0.00,,SKC,0.00,VWS V14.01,2013-01-10 08:10:00,
2013-01-10 03:11:00,41.5,25.2,30.10,WNW,301,7.0,7.0,52,0.00,,SKC,0.00,VWS V14.01,2013-01-10 08:11:00,
2013-01-10 03:14:00,41.5,24.7,30.10,NW,318,2.0,7.0,51,0.00,,SKC,0.00,VWS V14.01,2013-01-10 08:14:00,
2013-01-10 03:15:00,41.5,24.7,30.10,NW,325,1.0,2.0,51,0.00,,SKC,0.00,VWS V14.01,2013-01-10 08:15:00,
2013-01-10 03:16:00,41.5,25.2,30.10,NW,305,3.0,3.0,52,0.00,,SKC,0.00,VWS V14.01,2013-01-10 08:16:00,
2013-01-10 03:19:00,41.3,25.0,30.10,NW,308,3.0,3.0,52,0.00,,SKC,0.00,VWS V14.01,2013-01-10 08:19:00,
2013-01-10 03:20:00,41.3,25.0,30.10,NNW,339,3.0,3.0,52,0.00,,SKC,0.00,VWS V14.01,2013-01-10 08:20:00,
2013-01-10 03:21:00,41.3,25.0,30.10,NNW,332,3.0,3.0,52,0.00,,SKC,0.00,VWS V14.01,2013-01-10 08:21:00,
2013-01-10 03:25:00,41.2,24.9,30.10,WNW,302,1.0,1.0,52,0.00,,SKC,0.00,VWS V14.01,2013-01-10 08:25:00,
2013-01-10 03:26:00,41.2,24.9,30.10,NNW,332,1.0,3.0,52,0.00,,SKC,0.00,VWS V14.01,2013-01-10 08:26:00,
2013-01-10 03:27:00,41.2,24.9,30.10,NW,313,7.0,7.0,52,0.00,,SKC,0.00,VWS V14.01,2013-01-10 08:27:00,
2013-01-10 03:30:00,41.1,24.8,30.11,NNW,330,2.0,2.0,52,0.00,,SKC,0.00,VWS V14.01,2013-01-10 08:30:00,
2013-01-10 03:31:00,41.1,24.8,30.11,WNW,282,1.0,5.0,52,0.00,,SKC,0.00,VWS V14.01,2013-01-10 08:31:00,
2013-01-10 03:33:00,41.1,24.8,30.11,NNW,336,2.0,7.0,52,0.00,,SKC,0.00,VWS V14.01,2013-01-10 08:33:00,
2013-01-10 03:35:00,40.9,24.6,30.11,NW,325,1.0,2.0,52,0.00,,SKC,0.00,VWS V14.01,2013-01-10 08:35:00,
2013-01-10 03:36:00,40.9,25.1,30.11,NW,309,4.0,5.0,53,0.00,,SKC,0.00,VWS V14.01,2013-01-10 08:36:00,
2013-01-10 03:38:00,40.9,25.1,30.11,NNW,329,20.0,20.0,53,0.00,,SKC,0.00,VWS V14.01,2013-01-10 08:38:00,
2013-01-10 03:40:00,40.9,24.6,30.11,NNW,346,1.0,1.0,52,0.00,,SKC,0.00,VWS V14.01,2013-01-10 08:40:00,
2013-01-10 03:41:00,40.9,24.6,30.11,NW,309,0.0,1.0,52,0.00,,SKC,0.00,VWS V14.01,2013-01-10 08:41:00,
2013-01-10 03:43:00,40.9,25.1,30.11,NW,316,2.0,3.0,53,0.00,,SKC,0.00,VWS V14.01,2013-01-10 08:43:00,
2013-01-10 03:45:00,40.9,25.1,30.11,NNW,346,6.0,10.0,53,0.00,,SKC,0.00,VWS V14.01,2013-01-10 08:45:00,
2013-01-10 03:46:00,40.9,24.6,30.11,NW,311,2.0,10.0,52,0.00,,SKC,0.00,VWS V14.01,2013-01-10 08:46:00,
2013-01-10 03:48:00,40.9,24.6,30.11,NW,326,3.0,10.0,52,0.00,,SKC,0.00,VWS V14.01,2013-01-10 08:48:00,
2013-01-10 03:50:00,40.9,24.2,30.11,NW,322,1.0,10.0,51,0.00,,SKC,0.00,VWS V14.01,2013-01-10 08:50:00,
2013-01-10 03:51:00,41.1,24.4,30.11,NW,320,1.0,11.0,51,0.00,,SKC,0.00,VWS V14.01,2013-01-10 08:51:00,
2013-01-10 03:54:00,40.9,24.6,30.11,SW,222,2.0,5.0,52,0.00,,SKC,0.00,VWS V14.01,2013-01-10 08:54:00,
2013-01-10 03:55:00,40.9,24.6,30.11,NW,316,5.0,11.0,52,0.00,,SKC,0.00,VWS V14.01,2013-01-10 08:55:00,
2013-01-10 03:56:00,40.9,24.6,30.11,SE,136,2.0,5.0,52,0.00,,SKC,0.00,VWS V14.01,2013-01-10 08:56:00,
2013-01-10 03:57:00,40.9,24.6,30.11,NW,313,2.0,6.0,52,0.00,,SKC,0.00,VWS V14.01,2013-01-10 08:57:00,
2013-01-10 03:59:00,40.9,24.6,30.13,NNW,347,1.0,2.0,52,0.00,,SKC,0.00,VWS V14.01,2013-01-10 08:59:00,
2013-01-10 04:00:00,40.9,24.6,30.13,North,357,2.0,6.0,52,0.00,,SKC,0.00,VWS V14.01,2013-01-10 09:00:00,
2013-01-10 04:01:00,40.9,24.6,30.13,NNW,346,0.0,2.0,52,0.00,,SKC,0.00,VWS V14.01,2013-01-10 09:01:00,
2013-01-10 04:02:00,40.8,24.5,30.13,NNW,344,0.0,2.0,52,0.00,,SKC,0.00,VWS V14.01,2013-01-10 09:02:00,
2013-01-10 04:05:00,40.8,25.0,30.13,NW,318,1.0,5.0,53,0.00,,SKC,0.00,VWS V14.01,2013-01-10 09:05:00,
2013-01-10 04:07:00,40.8,24.5,30.13,WNW,299,5.0,6.0,52,0.00,,SKC,0.00,VWS V14.01,2013-01-10 09:07:00,
2013-01-10 04:10:00,40.9,24.6,30.13,North,352,0.0,1.0,52,0.00,,SKC,0.00,VWS V14.01,2013-01-10 09:10:00,
2013-01-10 04:12:00,40.9,24.6,30.13,West,265,1.0,3.0,52,0.00,,SKC,0.00,VWS V14.01,2013-01-10 09:12:00,
2013-01-10 04:15:00,40.8,24.5,30.13,NW,319,1.0,4.0,52,0.00,,SKC,0.00,VWS V14.01,2013-01-10 09:15:00,
2013-01-10 04:17:00,40.8,24.5,30.13,North,353,1.0,7.0,52,0.00,,SKC,0.00,VWS V14.01,2013-01-10 09:17:00,
2013-01-10 04:20:00,40.8,24.5,30.13,West,275,2.0,5.0,52,0.00,,SKC,0.00,VWS V14.01,2013-01-10 09:20:00,
2013-01-10 04:22:00,40.8,24.5,30.13,NNW,328,5.0,8.0,52,0.00,,SKC,0.00,VWS V14.01,2013-01-10 09:22:00,
2013-01-10 04:23:00,40.9,24.2,30.13,South,172,0.0,11.0,51,0.00,,SKC,0.00,VWS V14.01,2013-01-10 09:23:00,
2013-01-10 04:24:00,40.9,24.2,30.13,NW,315,3.0,11.0,51,0.00,,SKC,0.00,VWS V14.01,2013-01-10 09:24:00,
2013-01-10 04:25:00,40.9,24.2,30.13,NW,315,3.0,11.0,51,0.00,,SKC,0.00,VWS V14.01,2013-01-10 09:25:00,
2013-01-10 04:26:00,40.9,24.2,30.13,NW,323,2.0,6.0,51,0.00,,SKC,0.00,VWS V14.01,2013-01-10 09:26:00,
2013-01-10 04:27:00,40.9,24.2,30.13,NW,323,3.0,12.0,51,0.00,,SKC,0.00,VWS V14.01,2013-01-10 09:27:00,
2013-01-10 04:28:00,40.9,24.2,30.13,NNW,332,2.0,12.0,51,0.00,,SKC,0.00,VWS V14.01,2013-01-10 09:28:00,
2013-01-10 04:29:00,40.9,23.7,30.13,NW,318,0.0,1.0,50,0.00,,SKC,0.00,VWS V14.01,2013-01-10 09:29:00,
2013-01-10 04:30:00,40.9,23.7,30.13,NW,318,1.0,12.0,50,0.00,,SKC,0.00,VWS V14.01,2013-01-10 09:30:00,
2013-01-10 04:31:00,40.9,23.7,30.13,NNW,337,8.0,9.0,50,0.00,,SKC,0.00,VWS V14.01,2013-01-10 09:31:00,
2013-01-10 04:32:00,40.9,24.2,30.13,WNW,282,1.0,18.0,51,0.00,,SKC,0.00,VWS V14.01,2013-01-10 09:32:00,
2013-01-10 04:33:00,40.9,24.2,30.13,NNW,335,3.0,18.0,51,0.00,,SKC,0.00,VWS V14.01,2013-01-10 09:33:00,
2013-01-10 04:35:00,40.9,24.2,30.13,North,356,1.0,8.0,51,0.00,,SKC,0.00,VWS V14.01,2013-01-10 09:35:00,
2013-01-10 04:37:00,40.8,24.1,30.13,NW,323,1.0,8.0,51,0.00,,SKC,0.00,VWS V14.01,2013-01-10 09:37:00,
2013-01-10 04:38:00,40.8,24.1,30.13,NW,326,0.0,8.0,51,0.00,,SKC,0.00,VWS V14.01,2013-01-10 09:38:00,
2013-01-10 04:40:00,40.8,24.1,30.13,WNW,291,0.0,0.0,51,0.00,,SKC,0.00,VWS V14.01,2013-01-10 09:40:00,
2013-01-10 04:42:00,40.6,23.9,30.13,NNW,346,0.0,7.0,51,0.00,,SKC,0.00,VWS V14.01,2013-01-10 09:42:00,
2013-01-10 04:43:00,40.5,24.3,30.13,NNW,339,1.0,7.0,52,0.00,,SKC,0.00,VWS V14.01,2013-01-10 09:43:00,
2013-01-10 04:45:00,40.5,24.3,30.14,NW,308,1.0,7.0,52,0.00,,SKC,0.00,VWS V14.01,2013-01-10 09:45:00,
2013-01-10 04:46:00,40.5,23.8,30.14,NNW,332,0.0,2.0,51,0.00,,SKC,0.00,VWS V14.01,2013-01-10 09:46:00,
2013-01-10 04:47:00,40.5,23.8,30.14,NNW,343,1.0,11.0,51,0.00,,SKC,0.00,VWS V14.01,2013-01-10 09:47:00,
2013-01-10 04:48:00,40.3,23.6,30.14,NW,326,3.0,11.0,51,0.00,,SKC,0.00,VWS V14.01,2013-01-10 09:48:00,
2013-01-10 04:50:00,40.5,23.8,30.14,North,349,5.0,11.0,51,0.00,,SKC,0.00,VWS V14.01,2013-01-10 09:50:00,
2013-01-10 04:51:00,40.5,23.8,30.14,North,357,8.0,8.0,51,0.00,,SKC,0.00,VWS V14.01,2013-01-10 09:51:00,
2013-01-10 04:53:00,40.3,24.1,30.14,NW,315,1.0,8.0,52,0.00,,SKC,0.00,VWS V14.01,2013-01-10 09:53:00,
2013-01-10 04:55:00,40.3,24.1,30.14,NNW,335,0.0,8.0,52,0.00,,SKC,0.00,VWS V14.01,2013-01-10 09:55:00,
2013-01-10 04:56:00,40.3,24.1,30.14,NNW,333,0.0,0.0,52,0.00,,SKC,0.00,VWS V14.01,2013-01-10 09:56:00,
2013-01-10 04:58:00,40.3,24.1,30.14,NNW,344,1.0,2.0,52,0.00,,SKC,0.00,VWS V14.01,2013-01-10 09:58:00,
2013-01-10 04:59:00,40.2,24.5,30.15,NW,319,0.0,2.0,53,0.00,,SKC,0.00,VWS V14.01,2013-01-10 09:59:00,
2013-01-10 05:00:00,40.2,24.5,30.15,NW,318,0.0,2.0,53,0.00,,SKC,0.00,VWS V14.01,2013-01-10 10:00:00,
2013-01-10 05:01:00,40.2,24.5,30.15,NNW,342,0.0,5.0,53,0.00,,SKC,0.00,VWS V14.01,2013-01-10 10:01:00,
2013-01-10 05:03:00,40.1,23.9,30.15,NW,313,1.0,5.0,52,0.00,,SKC,0.00,VWS V14.01,2013-01-10 10:03:00,
2013-01-10 05:05:00,40.1,23.9,30.15,NNW,343,3.0,3.0,52,0.00,,SKC,0.00,VWS V14.01,2013-01-10 10:05:00,
2013-01-10 05:06:00,40.1,23.9,30.15,NNW,336,0.0,3.0,52,0.00,,SKC,0.00,VWS V14.01,2013-01-10 10:06:00,
2013-01-10 05:08:00,39.9,23.7,30.15,NW,326,1.0,3.0,52,0.00,,SKC,0.00,VWS V14.01,2013-01-10 10:08:00,
2013-01-10 05:10:00,39.9,23.7,30.15,NW,322,0.0,2.0,52,0.00,,SKC,0.00,VWS V14.01,2013-01-10 10:10:00,
2013-01-10 05:11:00,39.9,23.7,30.15,NNW,346,3.0,11.0,52,0.00,,SKC,0.00,VWS V14.01,2013-01-10 10:11:00,
2013-01-10 05:14:00,39.9,23.7,30.16,WNW,298,0.0,11.0,52,0.00,,SKC,0.00,VWS V14.01,2013-01-10 10:14:00,
2013-01-10 05:15:00,39.9,24.2,30.16,NW,308,0.0,2.0,53,0.00,,SKC,0.00,VWS V14.01,2013-01-10 10:15:00,
2013-01-10 05:16:00,39.8,24.1,30.16,NW,325,1.0,4.0,53,0.00,,SKC,0.00,VWS V14.01,2013-01-10 10:16:00,
2013-01-10 05:19:00,39.9,23.7,30.16,NNW,347,0.0,6.0,52,0.00,,SKC,0.00,VWS V14.01,2013-01-10 10:19:00,
2013-01-10 05:20:00,39.9,23.7,30.16,NNW,336,0.0,0.0,52,0.00,,SKC,0.00,VWS V14.01,2013-01-10 10:20:00,
2013-01-10 05:21:00,39.8,24.1,30.16,NW,322,0.0,2.0,53,0.00,,SKC,0.00,VWS V14.01,2013-01-10 10:21:00,
2013-01-10 05:24:00,39.8,23.6,30.16,West,274,0.0,1.0,52,0.00,,SKC,0.00,VWS V14.01,2013-01-10 10:24:00,
2013-01-10 05:25:00,39.8,24.1,30.16,WNW,289,0.0,3.0,53,0.00,,SKC,0.00,VWS V14.01,2013-01-10 10:25:00,
2013-01-10 05:26:00,39.8,24.1,30.16,WNW,289,0.0,3.0,53,0.00,,SKC,0.00,VWS V14.01,2013-01-10 10:26:00,
2013-01-10 05:27:00,39.6,23.9,30.16,NW,309,0.0,3.0,53,0.00,,SKC,0.00,VWS V14.01,2013-01-10 10:27:00,
2013-01-10 05:30:00,39.5,24.2,30.17,NW,308,0.0,0.0,54,0.00,,SKC,0.00,VWS V14.01,2013-01-10 10:30:00,
2013-01-10 05:31:00,39.5,24.2,30.17,NW,319,0.0,1.0,54,0.00,,SKC,0.00,VWS V14.01,2013-01-10 10:31:00,
2013-01-10 05:32:00,39.5,24.2,30.17,NNW,346,0.0,1.0,54,0.00,,SKC,0.00,VWS V14.01,2013-01-10 10:32:00,
2013-01-10 05:35:00,39.3,24.5,30.17,WNW,295,0.0,0.0,55,0.00,,SKC,0.00,VWS V14.01,2013-01-10 10:35:00,
2013-01-10 05:36:00,39.3,24.1,30.17,WNW,295,0.0,0.0,54,0.00,,SKC,0.00,VWS V14.01,2013-01-10 10:36:00,
2013-01-10 05:37:00,39.2,24.0,30.17,WNW,295,0.0,0.0,54,0.00,,SKC,0.00,VWS V14.01,2013-01-10 10:37:00,
2013-01-10 05:40:00,39.2,24.0,30.17,WSW,254,0.0,1.0,54,0.00,,SKC,0.00,VWS V14.01,2013-01-10 10:40:00,
2013-01-10 05:41:00,39.1,23.9,30.17,WNW,296,0.0,1.0,54,0.00,,SKC,0.00,VWS V14.01,2013-01-10 10:41:00,
2013-01-10 05:42:00,39.1,23.9,30.17,NW,319,0.0,6.0,54,0.00,,SKC,0.00,VWS V14.01,2013-01-10 10:42:00,
2013-01-10 05:45:00,39.2,24.0,30.19,NNW,343,6.0,6.0,54,0.00,,SKC,0.00,VWS V14.01,2013-01-10 10:45:00,
2013-01-10 05:46:00,39.2,24.0,30.19,NW,322,0.0,6.0,54,0.00,,SKC,0.00,VWS V14.01,2013-01-10 10:46:00,
2013-01-10 05:47:00,39.2,24.0,30.19,NW,322,0.0,6.0,54,0.00,,SKC,0.00,VWS V14.01,2013-01-10 10:47:00,
2013-01-10 05:50:00,39.2,24.0,30.19,NW,323,0.0,0.0,54,0.00,,SKC,0.00,VWS V14.01,2013-01-10 10:50:00,
2013-01-10 05:51:00,39.2,24.0,30.19,NNW,346,0.0,0.0,54,0.00,,SKC,0.00,VWS V14.01,2013-01-10 10:51:00,
2013-01-10 05:52:00,39.1,24.3,30.19,SE,145,1.0,2.0,55,0.00,,SKC,0.00,VWS V14.01,2013-01-10 10:52:00,
2013-01-10 05:55:00,38.9,24.1,30.19,SE,143,0.0,0.0,55,0.00,,SKC,0.00,VWS V14.01,2013-01-10 10:55:00,
2013-01-10 05:56:00,38.9,24.1,30.19,SE,141,0.0,0.0,55,0.00,,SKC,0.00,VWS V14.01,2013-01-10 10:56:00,
2013-01-10 05:58:00,38.9,24.1,30.19,WSW,251,1.0,1.0,55,0.00,,SKC,0.00,VWS V14.01,2013-01-10 10:58:00,
2013-01-10 06:00:00,37.6,23.8,30.23,North,350,1.0,1.0,57,0.00,,SKC,0.00,VWS V14.01,2013-01-10 11:00:00,
2013-01-10 06:01:00,38.8,24.0,30.20,NW,320,0.0,0.0,55,0.00,,SKC,0.00,VWS V14.01,2013-01-10 11:01:00,
2013-01-10 06:02:00,38.8,24.5,30.20,NW,320,0.0,0.0,56,0.00,,SKC,0.00,VWS V14.01,2013-01-10 11:02:00,
2013-01-10 06:03:00,38.6,24.3,30.20,NW,320,0.0,0.0,56,0.00,,SKC,0.00,VWS V14.01,2013-01-10 11:03:00,
2013-01-10 06:05:00,38.6,24.3,30.20,NNW,328,0.0,0.0,56,0.00,,SKC,0.00,VWS V14.01,2013-01-10 11:05:00,
2013-01-10 06:06:00,38.5,24.2,30.20,NW,326,0.0,0.0,56,0.00,,SKC,0.00,VWS V14.01,2013-01-10 11:06:00,
2013-01-10 06:07:00,38.5,24.2,30.20,NW,326,0.0,0.0,56,0.00,,SKC,0.00,VWS V14.01,2013-01-10 11:07:00,
2013-01-10 06:08:00,38.3,24.0,30.20,NW,326,0.0,0.0,56,0.00,,SKC,0.00,VWS V14.01,2013-01-10 11:08:00,
2013-01-10 06:10:00,38.3,24.0,30.20,NNW,330,0.0,1.0,56,0.00,,SKC,0.00,VWS V14.01,2013-01-10 11:10:00,
2013-01-10 06:12:00,38.3,24.4,30.20,NNW,329,0.0,0.0,57,0.00,,SKC,0.00,VWS V14.01,2013-01-10 11:12:00,
2013-01-10 06:13:00,38.2,24.3,30.20,NW,308,1.0,1.0,57,0.00,,SKC,0.00,VWS V14.01,2013-01-10 11:13:00,
2013-01-10 06:14:00,38.2,24.3,30.21,NW,306,0.0,1.0,57,0.00,,SKC,0.00,VWS V14.01,2013-01-10 11:14:00,
2013-01-10 06:15:00,38.2,24.3,30.21,WNW,284,1.0,1.0,57,0.00,,SKC,0.00,VWS V14.01,2013-01-10 11:15:00,
2013-01-10 06:17:00,38.2,24.3,30.21,WNW,301,0.0,1.0,57,0.00,,SKC,0.00,VWS V14.01,2013-01-10 11:17:00,
2013-01-10 06:18:00,38.0,24.1,30.21,WNW,302,0.0,1.0,57,0.00,,SKC,0.00,VWS V14.01,2013-01-10 11:18:00,
2013-01-10 06:19:00,38.0,24.1,30.21,WNW,302,0.0,1.0,57,0.00,,SKC,0.00,VWS V14.01,2013-01-10 11:19:00,
2013-01-10 06:20:00,38.0,24.1,30.21,WNW,302,0.0,1.0,57,0.00,,SKC,0.00,VWS V14.01,2013-01-10 11:20:00,
2013-01-10 06:22:00,38.0,24.1,30.21,WNW,289,0.0,0.0,57,0.00,,SKC,0.00,VWS V14.01,2013-01-10 11:22:00,
2013-01-10 06:23:00,38.0,24.1,30.21,NW,325,1.0,2.0,57,0.00,,SKC,0.00,VWS V14.01,2013-01-10 11:23:00,
2013-01-10 06:24:00,38.0,24.1,30.21,NW,325,1.0,2.0,57,0.00,,SKC,0.00,VWS V14.01,2013-01-10 11:24:00,
2013-01-10 06:25:00,38.0,24.1,30.21,WNW,296,1.0,2.0,57,0.00,,SKC,0.00,VWS V14.01,2013-01-10 11:25:00,
2013-01-10 06:28:00,38.2,23.9,30.22,WNW,282,0.0,1.0,56,0.00,,SKC,0.00,VWS V14.01,2013-01-10 11:28:00,
2013-01-10 06:29:00,38.2,23.9,30.22,WNW,282,0.0,1.0,56,0.00,,SKC,0.00,VWS V14.01,2013-01-10 11:29:00,
2013-01-10 06:30:00,38.2,23.9,30.22,NW,326,4.0,5.0,56,0.00,,SKC,0.00,VWS V14.01,2013-01-10 11:30:00,
2013-01-10 06:34:00,38.2,23.9,30.22,NW,325,0.0,4.0,56,0.00,,SKC,0.00,VWS V14.01,2013-01-10 11:34:00,
2013-01-10 06:35:00,38.2,23.9,30.22,West,281,0.0,0.0,56,0.00,,SKC,0.00,VWS V14.01,2013-01-10 11:35:00,
2013-01-10 06:39:00,38.2,24.3,30.22,NNW,347,0.0,7.0,57,0.00,,SKC,0.00,VWS V14.01,2013-01-10 11:39:00,
2013-01-10 06:40:00,38.0,24.1,30.22,NNW,347,0.0,0.0,57,0.00,,SKC,0.00,VWS V14.01,2013-01-10 11:40:00,
2013-01-10 06:44:00,38.0,24.1,30.22,NNW,343,1.0,2.0,57,0.00,,SKC,0.00,VWS V14.01,2013-01-10 11:44:00,
2013-01-10 06:45:00,37.9,24.0,30.22,NNW,342,0.0,0.0,57,0.00,,SKC,0.00,VWS V14.01,2013-01-10 11:45:00,
2013-01-10 06:49:00,37.8,24.0,30.22,WNW,284,0.0,0.0,57,0.00,,SKC,0.00,VWS V14.01,2013-01-10 11:49:00,
2013-01-10 06:50:00,37.8,24.0,30.22,NNW,330,1.0,1.0,57,0.00,,SKC,0.00,VWS V14.01,2013-01-10 11:50:00,
2013-01-10 06:54:00,37.8,24.0,30.22,North,353,0.0,0.0,57,0.00,,SKC,0.00,VWS V14.01,2013-01-10 11:54:00,
2013-01-10 06:55:00,37.8,24.0,30.22,North,350,0.0,0.0,57,0.00,,SKC,0.00,VWS V14.01,2013-01-10 11:55:00,
2013-01-10 06:56:00,37.6,23.8,30.22,North,350,0.0,0.0,57,0.00,,SKC,0.00,VWS V14.01,2013-01-10 11:56:00,
2013-01-10 07:00:00,37.6,23.8,30.23,NNW,339,1.0,1.0,57,0.00,,SKC,0.00,VWS V14.01,2013-01-10 12:00:00,
2013-01-10 07:01:00,37.6,23.3,30.23,NNW,337,0.0,2.0,56,0.00,,SKC,0.00,VWS V14.01,2013-01-10 12:01:00,
2013-01-10 07:05:00,37.6,23.3,30.23,NW,315,0.0,0.0,56,0.00,,SKC,0.00,VWS V14.01,2013-01-10 12:05:00,
2013-01-10 07:06:00,37.6,23.3,30.23,NW,315,0.0,0.0,56,0.00,,SKC,0.00,VWS V14.01,2013-01-10 12:06:00,
2013-01-10 07:07:00,37.6,23.3,30.23,NW,315,0.0,0.0,56,0.00,,SKC,0.00,VWS V14.01,2013-01-10 12:07:00,
2013-01-10 07:10:00,37.6,23.3,30.23,North,352,0.0,0.0,56,0.00,,SKC,0.00,VWS V14.01,2013-01-10 12:10:00,
2013-01-10 07:11:00,37.6,23.8,30.23,North,352,0.0,0.0,57,0.00,,SKC,0.00,VWS V14.01,2013-01-10 12:11:00,
2013-01-10 07:13:00,37.5,23.7,30.23,NNW,337,1.0,2.0,57,0.00,,SKC,0.00,VWS V14.01,2013-01-10 12:13:00,
2013-01-10 07:15:00,37.6,23.3,30.24,NNW,337,0.0,2.0,56,0.00,,SKC,0.00,VWS V14.01,2013-01-10 12:15:00,
2013-01-10 07:16:00,37.6,23.3,30.24,NNW,337,0.0,2.0,56,0.00,,SKC,0.00,VWS V14.01,2013-01-10 12:16:00,
2013-01-10 07:18:00,37.6,23.3,30.24,NNW,337,0.0,2.0,56,0.00,,SKC,0.00,VWS V14.01,2013-01-10 12:18:00,
2013-01-10 07:20:00,37.5,23.2,30.24,South,174,0.0,2.0,56,0.00,,SKC,0.00,VWS V14.01,2013-01-10 12:20:00,
2013-01-10 07:21:00,37.5,23.2,30.24,NW,326,0.0,2.0,56,0.00,,SKC,0.00,VWS V14.01,2013-01-10 12:21:00,
2013-01-10 07:22:00,37.5,23.2,30.24,NW,315,0.0,3.0,56,0.00,,SKC,0.00,VWS V14.01,2013-01-10 12:22:00,
2013-01-10 07:23:00,37.5,23.2,30.24,NW,315,0.0,3.0,56,0.00,,SKC,0.00,VWS V14.01,2013-01-10 12:23:00,
2013-01-10 07:25:00,37.5,23.2,30.24,WNW,284,0.0,3.0,56,0.00,,SKC,0.00,VWS V14.01,2013-01-10 12:25:00,
2013-01-10 07:26:00,37.6,23.3,30.24,WNW,284,0.0,0.0,56,0.00,,SKC,0.00,VWS V14.01,2013-01-10 12:26:00,
2013-01-10 07:27:00,37.6,23.3,30.24,NW,318,0.0,2.0,56,0.00,,SKC,0.00,VWS V14.01,2013-01-10 12:27:00,
2013-01-10 07:28:00,37.6,23.3,30.24,NW,319,0.0,2.0,56,0.00,,SKC,0.00,VWS V14.01,2013-01-10 12:28:00,
2013-01-10 07:30:00,37.6,23.3,30.24,NW,318,0.0,2.0,56,0.00,,SKC,0.00,VWS V14.01,2013-01-10 12:30:00,
2013-01-10 07:31:00,37.6,23.3,30.24,NW,318,0.0,0.0,56,0.00,,SKC,0.00,VWS V14.01,2013-01-10 12:31:00,
2013-01-10 07:32:00,37.6,23.3,30.24,NW,319,0.0,0.0,56,0.00,,SKC,0.00,VWS V14.01,2013-01-10 12:32:00,
2013-01-10 07:34:00,37.8,23.5,30.24,NW,322,0.0,1.0,56,0.00,,SKC,0.00,VWS V14.01,2013-01-10 12:34:00,
2013-01-10 07:35:00,38.9,23.2,30.28,NW,315,0.0,3.0,53,0.00,,SKC,0.00,VWS V14.01,2013-01-10 12:35:00,
2013-01-10 07:36:00,37.8,23.5,30.24,NW,323,0.0,0.0,56,0.00,,SKC,0.00,VWS V14.01,2013-01-10 12:36:00,
2013-01-10 07:38:00,37.8,23.5,30.24,NW,322,0.0,0.0,56,0.00,,SKC,0.00,VWS V14.01,2013-01-10 12:38:00,
2013-01-10 07:39:00,37.8,23.5,30.24,NW,322,0.0,0.0,56,0.00,,SKC,0.00,VWS V14.01,2013-01-10 12:39:00,
2013-01-10 07:40:00,37.8,23.5,30.24,NW,320,0.0,0.0,56,0.00,,SKC,0.00,VWS V14.01,2013-01-10 12:40:00,
2013-01-10 07:41:00,37.8,24.0,30.24,NW,320,0.0,0.0,57,0.00,,SKC,0.00,VWS V14.01,2013-01-10 12:41:00,
2013-01-10 07:42:00,37.8,24.0,30.24,NW,320,0.0,0.0,57,0.00,,SKC,0.00,VWS V14.01,2013-01-10 12:42:00,
2013-01-10 07:43:00,37.8,24.0,30.24,NW,320,0.0,0.0,57,0.00,,SKC,0.00,VWS V14.01,2013-01-10 12:43:00,
2013-01-10 07:44:00,37.8,24.0,30.25,NW,320,0.0,0.0,57,0.00,,SKC,0.00,VWS V14.01,2013-01-10 12:44:00,
2013-01-10 07:45:00,37.8,24.0,30.25,NW,320,0.0,0.0,57,0.00,,SKC,0.00,VWS V14.01,2013-01-10 12:45:00,
2013-01-10 07:46:00,37.6,23.8,30.25,WNW,294,0.0,2.0,57,0.00,,SKC,0.00,VWS V14.01,2013-01-10 12:46:00,
2013-01-10 07:47:00,37.6,23.8,30.25,NNW,330,1.0,2.0,57,0.00,,SKC,0.00,VWS V14.01,2013-01-10 12:47:00,
2013-01-10 07:48:00,37.6,23.8,30.25,NNW,330,0.0,2.0,57,0.00,,SKC,0.00,VWS V14.01,2013-01-10 12:48:00,
2013-01-10 07:50:00,37.6,23.8,30.25,NW,304,0.0,1.0,57,0.00,,SKC,0.00,VWS V14.01,2013-01-10 12:50:00,
2013-01-10 07:51:00,37.6,23.3,30.25,WNW,302,0.0,1.0,56,0.00,,SKC,0.00,VWS V14.01,2013-01-10 12:51:00,
2013-01-10 07:52:00,37.6,23.3,30.25,WNW,296,1.0,2.0,56,0.00,,SKC,0.00,VWS V14.01,2013-01-10 12:52:00,
2013-01-10 07:53:00,37.6,23.3,30.25,WNW,302,1.0,2.0,56,0.00,,SKC,0.00,VWS V14.01,2013-01-10 12:53:00,
2013-01-10 07:55:00,37.6,23.3,30.25,NW,319,2.0,2.0,56,0.00,,SKC,0.00,VWS V14.01,2013-01-10 12:55:00,
2013-01-10 07:57:00,37.6,23.3,30.25,NW,326,0.0,2.0,56,0.00,,SKC,0.00,VWS V14.01,2013-01-10 12:57:00,
2013-01-10 07:58:00,37.8,23.5,30.25,NW,304,0.0,2.0,56,0.00,,SKC,0.00,VWS V14.01,2013-01-10 12:58:00,
2013-01-10 08:00:00,37.8,23.5,30.27,NW,311,0.0,0.0,56,0.00,,SKC,0.00,VWS V14.01,2013-01-10 13:00:00,
2013-01-10 08:02:00,37.9,23.6,30.27,NW,315,0.0,0.0,56,0.00,,SKC,0.00,VWS V14.01,2013-01-10 13:02:00,
2013-01-10 08:03:00,37.9,23.6,30.27,NW,315,0.0,0.0,56,0.00,,SKC,0.00,VWS V14.01,2013-01-10 13:03:00,
2013-01-10 08:05:00,37.9,24.0,30.27,NW,315,0.0,0.0,57,0.00,,SKC,0.00,VWS V14.01,2013-01-10 13:05:00,
2013-01-10 08:06:00,37.9,24.0,30.27,WNW,301,0.0,7.0,57,0.00,,SKC,0.00,VWS V14.01,2013-01-10 13:06:00,
2013-01-10 08:08:00,37.9,24.0,30.27,WNW,301,0.0,7.0,57,0.00,,SKC,0.00,VWS V14.01,2013-01-10 13:08:00,
2013-01-10 08:10:00,38.0,24.1,30.27,WNW,298,2.0,7.0,57,0.00,,SKC,0.00,VWS V14.01,2013-01-10 13:10:00,
2013-01-10 08:11:00,38.0,24.1,30.27,NW,320,0.0,4.0,57,0.00,,SKC,0.00,VWS V14.01,2013-01-10 13:11:00,
2013-01-10 08:13:00,38.0,24.1,30.27,NW,320,0.0,4.0,57,0.00,,SKC,0.00,VWS V14.01,2013-01-10 13:13:00,
2013-01-10 08:14:00,38.0,23.7,30.27,NW,320,0.0,4.0,56,0.00,,SKC,0.00,VWS V14.01,2013-01-10 13:14:00,
2013-01-10 08:15:00,38.0,23.7,30.27,West,260,0.0,4.0,56,0.00,,SKC,0.00,VWS V14.01,2013-01-10 13:15:00,
2013-01-10 08:16:00,38.0,23.7,30.27,West,263,0.0,0.0,56,0.00,,SKC,0.00,VWS V14.01,2013-01-10 13:16:00,
2013-01-10 08:18:00,38.2,23.9,30.27,NW,316,0.0,0.0,56,0.00,,SKC,0.00,VWS V14.01,2013-01-10 13:18:00,
2013-01-10 08:19:00,38.2,23.9,30.27,NNW,339,0.0,0.0,56,0.00,,SKC,0.00,VWS V14.01,2013-01-10 13:19:00,
2013-01-10 08:20:00,38.2,23.9,30.27,NNW,339,0.0,0.0,56,0.00,,SKC,0.00,VWS V14.01,2013-01-10 13:20:00,
2013-01-10 08:21:00,38.2,23.9,30.27,NW,325,0.0,5.0,56,0.00,,SKC,0.00,VWS V14.01,2013-01-10 13:21:00,
2013-01-10 08:23:00,38.3,23.6,30.27,NW,318,6.0,6.0,55,0.00,,SKC,0.00,VWS V14.01,2013-01-10 13:23:00,
2013-01-10 08:25:00,38.3,23.6,30.27,NW,313,0.0,0.0,55,0.00,,SKC,0.00,VWS V14.01,2013-01-10 13:25:00,
2013-01-10 08:27:00,38.5,23.8,30.27,NNW,330,2.0,2.0,55,0.00,,SKC,0.00,VWS V14.01,2013-01-10 13:27:00,
2013-01-10 08:29:00,38.6,23.8,30.28,NNW,330,0.0,2.0,55,0.00,,SKC,0.00,VWS V14.01,2013-01-10 13:29:00,
2013-01-10 08:30:00,38.6,23.8,30.28,NNW,329,0.0,0.0,55,0.00,,SKC,0.00,VWS V14.01,2013-01-10 13:30:00,
2013-01-10 08:33:00,38.9,24.1,30.28,NW,322,0.0,1.0,55,0.00,,SKC,0.00,VWS V14.01,2013-01-10 13:33:00,
2013-01-10 08:34:00,38.9,23.2,30.28,NW,318,0.0,3.0,53,0.00,,SKC,0.00,VWS V14.01,2013-01-10 13:34:00,
2013-01-10 08:35:00,39.1,23.4,30.28,NW,306,2.0,2.0,53,0.00,,SKC,0.00,VWS V14.01,2013-01-10 13:35:00,
2013-01-10 08:39:00,39.2,23.5,30.28,NNW,329,0.0,5.0,53,0.00,,SKC,0.00,VWS V14.01,2013-01-10 13:39:00,
2013-01-10 08:40:00,39.2,23.5,30.28,NNW,336,0.0,0.0,53,0.00,,SKC,0.00,VWS V14.01,2013-01-10 13:40:00,
2013-01-10 08:44:00,39.3,22.7,30.30,NW,319,1.0,7.0,51,0.00,,SKC,0.00,VWS V14.01,2013-01-10 13:44:00,
2013-01-10 08:45:00,39.3,22.7,30.30,North,354,0.0,3.0,51,0.00,,SKC,0.00,VWS V14.01,2013-01-10 13:45:00,
2013-01-10 08:49:00,39.6,23.4,30.30,WNW,284,0.0,3.0,52,0.00,,SKC,0.00,VWS V14.01,2013-01-10 13:49:00,
2013-01-10 08:50:00,39.6,23.4,30.30,WNW,289,4.0,4.0,52,0.00,,SKC,0.00,VWS V14.01,2013-01-10 13:50:00,
2013-01-10 08:51:00,39.6,22.5,30.30,North,353,1.0,4.0,50,0.00,,SKC,0.00,VWS V14.01,2013-01-10 13:51:00,
2013-01-10 08:54:00,39.6,23.0,30.30,NNW,336,0.0,4.0,51,0.00,,SKC,0.00,VWS V14.01,2013-01-10 13:54:00,
2013-01-10 08:55:00,39.6,23.0,30.30,WNW,285,1.0,3.0,51,0.00,,SKC,0.00,VWS V14.01,2013-01-10 13:55:00,
2013-01-10 08:56:00,39.6,23.0,30.30,NW,315,0.0,4.0,51,0.00,,SKC,0.00,VWS V14.01,2013-01-10 13:56:00,
2013-01-10 08:59:00,39.6,23.0,30.30,NW,316,0.0,4.0,51,0.00,,SKC,0.00,VWS V14.01,2013-01-10 13:59:00,
2013-01-10 09:00:00,39.6,23.0,30.30,NNW,335,0.0,1.0,51,0.00,,SKC,0.00,VWS V14.01,2013-01-10 14:00:00,
2013-01-10 09:01:00,39.6,23.0,30.30,NNW,328,0.0,1.0,51,0.00,,SKC,0.00,VWS V14.01,2013-01-10 14:01:00,
2013-01-10 09:04:00,39.6,23.0,30.30,NNW,332,0.0,1.0,51,0.00,,SKC,0.00,VWS V14.01,2013-01-10 14:04:00,
2013-01-10 09:05:00,39.6,23.0,30.30,NW,326,0.0,0.0,51,0.00,,SKC,0.00,VWS V14.01,2013-01-10 14:05:00,
2013-01-10 09:06:00,39.6,23.0,30.30,NW,326,0.0,0.0,51,0.00,,SKC,0.00,VWS V14.01,2013-01-10 14:06:00,
2013-01-10 09:09:00,39.6,23.0,30.30,NW,316,0.0,0.0,51,0.00,,SKC,0.00,VWS V14.01,2013-01-10 14:09:00,
2013-01-10 09:10:00,39.6,23.0,30.30,NW,316,0.0,0.0,51,0.00,,SKC,0.00,VWS V14.01,2013-01-10 14:10:00,
2013-01-10 09:11:00,39.6,23.0,30.30,NW,316,0.0,0.0,51,0.00,,SKC,0.00,VWS V14.01,2013-01-10 14:11:00,
2013-01-10 09:15:00,39.6,22.5,30.30,NW,318,3.0,3.0,50,0.00,,SKC,0.00,VWS V14.01,2013-01-10 14:15:00,
2013-01-10 09:16:00,39.6,22.5,30.30,NNW,335,0.0,3.0,50,0.00,,SKC,0.00,VWS V14.01,2013-01-10 14:16:00,
2013-01-10 09:17:00,39.6,22.5,30.30,NNW,335,0.0,3.0,50,0.00,,SKC,0.00,VWS V14.01,2013-01-10 14:17:00,
2013-01-10 09:20:00,40.1,23.0,30.30,WNW,299,0.0,0.0,50,0.00,,SKC,0.00,VWS V14.01,2013-01-10 14:20:00,
2013-01-10 09:21:00,40.1,23.0,30.30,WNW,299,0.0,0.0,50,0.00,,SKC,0.00,VWS V14.01,2013-01-10 14:21:00,
2013-01-10 09:22:00,40.1,23.0,30.30,WNW,299,0.0,0.0,50,0.00,,SKC,0.00,VWS V14.01,2013-01-10 14:22:00,
2013-01-10 09:25:00,40.1,23.0,30.30,WNW,299,0.0,0.0,50,0.00,,SKC,0.00,VWS V14.01,2013-01-10 14:25:00,
2013-01-10 09:26:00,40.1,23.0,30.30,WNW,299,0.0,0.0,50,0.00,,SKC,0.00,VWS V14.01,2013-01-10 14:26:00,
2013-01-10 09:27:00,40.1,23.0,30.30,NNW,330,2.0,2.0,50,0.00,,SKC,0.00,VWS V14.01,2013-01-10 14:27:00,
2013-01-10 09:30:00,40.1,22.5,30.30,WNW,294,0.0,0.0,49,0.00,,SKC,0.00,VWS V14.01,2013-01-10 14:30:00,
2013-01-10 09:31:00,40.1,22.5,30.30,NNW,339,0.0,0.0,49,0.00,,SKC,0.00,VWS V14.01,2013-01-10 14:31:00,
2013-01-10 09:32:00,40.1,22.5,30.30,North,352,8.0,8.0,49,0.00,,SKC,0.00,VWS V14.01,2013-01-10 14:32:00,
2013-01-10 09:33:00,40.1,22.5,30.30,North,352,8.0,8.0,49,0.00,,SKC,0.00,VWS V14.01,2013-01-10 14:33:00,
2013-01-10 09:35:00,40.1,22.5,30.30,NW,313,0.0,3.0,49,0.00,,SKC,0.00,VWS V14.01,2013-01-10 14:35:00,
2013-01-10 09:36:00,40.1,22.5,30.30,NW,313,0.0,3.0,49,0.00,,SKC,0.00,VWS V14.01,2013-01-10 14:36:00,
2013-01-10 09:37:00,40.1,22.5,30.30,NW,313,0.0,3.0,49,0.00,,SKC,0.00,VWS V14.01,2013-01-10 14:37:00,
2013-01-10 09:38:00,40.1,22.5,30.30,NW,313,0.0,3.0,49,0.00,,SKC,0.00,VWS V14.01,2013-01-10 14:38:00,
2013-01-10 09:40:00,40.1,22.5,30.30,NW,313,0.0,0.0,49,0.00,,SKC,0.00,VWS V14.01,2013-01-10 14:40:00,
2013-01-10 09:41:00,40.1,22.5,30.30,NW,313,0.0,0.0,49,0.00,,SKC,0.00,VWS V14.01,2013-01-10 14:41:00,
2013-01-10 09:42:00,40.1,22.5,30.30,NW,313,0.0,0.0,49,0.00,,SKC,0.00,VWS V14.01,2013-01-10 14:42:00,
2013-01-10 09:44:00,40.8,23.1,30.31,WNW,287,0.0,0.0,49,0.00,,SKC,0.00,VWS V14.01,2013-01-10 14:44:00,
2013-01-10 09:45:00,40.8,23.1,30.31,WNW,287,0.0,0.0,49,0.00,,SKC,0.00,VWS V14.01,2013-01-10 14:45:00,
2013-01-10 09:46:00,40.8,23.1,30.31,WNW,288,0.0,0.0,49,0.00,,SKC,0.00,VWS V14.01,2013-01-10 14:46:00,
2013-01-10 09:47:00,40.8,23.1,30.31,NNW,333,3.0,3.0,49,0.00,,SKC,0.00,VWS V14.01,2013-01-10 14:47:00,
2013-01-10 09:50:00,40.9,23.2,30.31,NNW,339,1.0,3.0,49,0.00,,SKC,0.00,VWS V14.01,2013-01-10 14:50:00,
2013-01-10 09:51:00,40.9,22.2,30.31,North,354,2.0,3.0,47,0.00,,SKC,0.00,VWS V14.01,2013-01-10 14:51:00,
2013-01-10 09:52:00,40.9,22.2,30.31,NW,322,0.0,3.0,47,0.00,,SKC,0.00,VWS V14.01,2013-01-10 14:52:00,
2013-01-10 09:55:00,40.9,22.2,30.31,NNW,336,3.0,3.0,47,0.00,,SKC,0.00,VWS V14.01,2013-01-10 14:55:00,
2013-01-10 09:57:00,40.9,22.2,30.31,NNW,336,3.0,3.0,47,0.00,,SKC,0.00,VWS V14.01,2013-01-10 14:57:00,
2013-01-10 10:00:00,41.1,22.4,30.31,NW,325,0.0,6.0,47,0.00,,SKC,0.00,VWS V14.01,2013-01-10 15:00:00,
2013-01-10 10:02:00,41.1,22.4,30.31,NNW,328,2.0,6.0,47,0.00,,SKC,0.00,VWS V14.01,2013-01-10 15:02:00,
2013-01-10 10:05:00,41.2,22.5,30.31,NW,323,0.0,6.0,47,0.00,,SKC,0.00,VWS V14.01,2013-01-10 15:05:00,
2013-01-10 10:06:00,41.2,22.5,30.31,North,356,3.0,3.0,47,0.00,,SKC,0.00,VWS V14.01,2013-01-10 15:06:00,
2013-01-10 10:07:00,41.3,22.6,30.31,North,354,6.0,6.0,47,0.00,,SKC,0.00,VWS V14.01,2013-01-10 15:07:00,
2013-01-10 10:08:00,41.3,22.6,30.31,NW,323,0.0,7.0,47,0.00,,SKC,0.00,VWS V14.01,2013-01-10 15:08:00,
2013-01-10 10:10:00,41.3,22.6,30.31,NW,323,0.0,7.0,47,0.00,,SKC,0.00,VWS V14.01,2013-01-10 15:10:00,
2013-01-10 10:11:00,41.3,22.6,30.31,NW,323,0.0,0.0,47,0.00,,SKC,0.00,VWS V14.01,2013-01-10 15:11:00,
2013-01-10 10:12:00,41.3,22.6,30.31,NW,323,0.0,0.0,47,0.00,,SKC,0.00,VWS V14.01,2013-01-10 15:12:00,
2013-01-10 10:13:00,41.3,22.6,30.31,NW,319,2.0,2.0,47,0.00,,SKC,0.00,VWS V14.01,2013-01-10 15:13:00,
2013-01-10 10:15:00,41.3,22.6,30.32,NW,316,3.0,3.0,47,0.00,,SKC,0.00,VWS V14.01,2013-01-10 15:15:00,
2013-01-10 10:17:00,41.3,22.6,30.32,NW,320,1.0,3.0,47,0.00,,SKC,0.00,VWS V14.01,2013-01-10 15:17:00,
2013-01-10 10:18:00,41.3,22.6,30.32,NW,320,1.0,3.0,47,0.00,,SKC,0.00,VWS V14.01,2013-01-10 15:18:00,
2013-01-10 10:20:00,41.3,22.6,30.32,NW,320,1.0,3.0,47,0.00,,SKC,0.00,VWS V14.01,2013-01-10 15:20:00,
2013-01-10 10:22:00,41.5,22.3,30.32,NW,322,1.0,11.0,46,0.00,,SKC,0.00,VWS V14.01,2013-01-10 15:22:00,
2013-01-10 10:23:00,41.5,22.3,30.32,NW,323,2.0,11.0,46,0.00,,SKC,0.00,VWS V14.01,2013-01-10 15:23:00,
2013-01-10 10:24:00,41.5,22.3,30.32,NNW,344,3.0,11.0,46,0.00,,SKC,0.00,VWS V14.01,2013-01-10 15:24:00,
2013-01-10 10:25:00,42.6,21.7,30.30,SE,137,6.0,10.0,43,0.00,,SKC,0.00,VWS V14.01,2013-01-10 15:25:00,
2013-01-10 10:28:00,41.5,22.3,30.32,North,356,8.0,8.0,46,0.00,,SKC,0.00,VWS V14.01,2013-01-10 15:28:00,
2013-01-10 10:29:00,41.5,22.3,30.31,North,356,8.0,8.0,46,0.00,,SKC,0.00,VWS V14.01,2013-01-10 15:29:00,
2013-01-10 10:30:00,41.5,22.3,30.31,North,356,8.0,8.0,46,0.00,,SKC,0.00,VWS V14.01,2013-01-10 15:30:00,
2013-01-10 10:33:00,41.5,22.3,30.31,NW,320,0.0,8.0,46,0.00,,SKC,0.00,VWS V14.01,2013-01-10 15:33:00,
2013-01-10 10:34:00,41.5,22.3,30.31,NW,322,5.0,5.0,46,0.00,,SKC,0.00,VWS V14.01,2013-01-10 15:34:00,
2013-01-10 10:35:00,42.8,21.9,30.30,North,349,2.0,3.0,43,0.00,,SKC,0.00,VWS V14.01,2013-01-10 15:35:00,
2013-01-10 10:38:00,41.8,22.0,30.31,NNW,332,0.0,5.0,45,0.00,,SKC,0.00,VWS V14.01,2013-01-10 15:38:00,
2013-01-10 10:39:00,41.8,22.0,30.31,NNW,332,0.0,5.0,45,0.00,,SKC,0.00,VWS V14.01,2013-01-10 15:39:00,
2013-01-10 10:40:00,41.8,22.0,30.31,NNW,344,5.0,5.0,45,0.00,,SKC,0.00,VWS V14.01,2013-01-10 15:40:00,
2013-01-10 10:44:00,41.9,22.1,30.31,SE,136,0.0,5.0,45,0.00,,SKC,0.00,VWS V14.01,2013-01-10 15:44:00,
2013-01-10 10:45:00,41.9,22.1,30.31,SE,136,0.0,0.0,45,0.00,,SKC,0.00,VWS V14.01,2013-01-10 15:45:00,
2013-01-10 10:49:00,41.9,22.1,30.31,NNW,329,6.0,11.0,45,0.00,,SKC,0.00,VWS V14.01,2013-01-10 15:49:00,
2013-01-10 10:50:00,42.1,22.3,30.31,NW,320,0.0,6.0,45,0.00,,SKC,0.00,VWS V14.01,2013-01-10 15:50:00,
2013-01-10 10:54:00,42.1,22.3,30.31,NW,319,0.0,6.0,45,0.00,,SKC,0.00,VWS V14.01,2013-01-10 15:54:00,
2013-01-10 10:55:00,42.1,22.3,30.31,NW,319,0.0,0.0,45,0.00,,SKC,0.00,VWS V14.01,2013-01-10 15:55:00,
2013-01-10 11:00:00,42.1,22.3,30.31,NNW,329,0.0,0.0,45,0.00,,SKC,0.00,VWS V14.01,2013-01-10 16:00:00,
2013-01-10 11:05:00,42.3,21.4,30.31,West,277,0.0,0.0,43,0.00,,SKC,0.00,VWS V14.01,2013-01-10 16:05:00,
2013-01-10 11:06:00,42.3,21.4,30.31,West,277,0.0,0.0,43,0.00,,SKC,0.00,VWS V14.01,2013-01-10 16:06:00,
2013-01-10 11:10:00,42.3,21.4,30.31,NW,315,3.0,3.0,43,0.00,,SKC,0.00,VWS V14.01,2013-01-10 16:10:00,
2013-01-10 11:11:00,42.3,21.4,30.31,NW,315,3.0,3.0,43,0.00,,SKC,0.00,VWS V14.01,2013-01-10 16:11:00,
2013-01-10 11:15:00,42.6,21.7,30.30,SE,134,2.0,5.0,43,0.00,,SKC,0.00,VWS V14.01,2013-01-10 16:15:00,
2013-01-10 11:16:00,42.6,21.7,30.30,North,357,6.0,6.0,43,0.00,,SKC,0.00,VWS V14.01,2013-01-10 16:16:00,
2013-01-10 11:17:00,42.6,21.7,30.30,NNW,328,1.0,6.0,43,0.00,,SKC,0.00,VWS V14.01,2013-01-10 16:17:00,
2013-01-10 11:20:00,42.6,21.7,30.30,North,352,1.0,1.0,43,0.00,,SKC,0.00,VWS V14.01,2013-01-10 16:20:00,
2013-01-10 11:21:00,42.6,21.7,30.30,North,357,2.0,2.0,43,0.00,,SKC,0.00,VWS V14.01,2013-01-10 16:21:00,
2013-01-10 11:22:00,42.6,21.7,30.30,SE,137,6.0,10.0,43,0.00,,SKC,0.00,VWS V14.01,2013-01-10 16:22:00,
2013-01-10 11:23:00,42.6,21.7,30.30,SE,137,6.0,10.0,43,0.00,,SKC,0.00,VWS V14.01,2013-01-10 16:23:00,
2013-01-10 11:25:00,42.6,21.7,30.30,SE,137,6.0,6.0,43,0.00,,SKC,0.00,VWS V14.01,2013-01-10 16:25:00,
2013-01-10 11:26:00,42.6,21.7,30.30,NW,319,0.0,6.0,43,0.00,,SKC,0.00,VWS V14.01,2013-01-10 16:26:00,
2013-01-10 11:27:00,42.6,21.7,30.30,NW,319,0.0,6.0,43,0.00,,SKC,0.00,VWS V14.01,2013-01-10 16:27:00,
2013-01-10 11:28:00,42.6,21.7,30.30,NW,322,3.0,6.0,43,0.00,,SKC,0.00,VWS V14.01,2013-01-10 16:28:00,
2013-01-10 11:30:00,42.8,21.9,30.30,NNW,344,3.0,3.0,43,0.00,,SKC,0.00,VWS V14.01,2013-01-10 16:30:00,
2013-01-10 11:32:00,42.8,21.9,30.30,NNW,328,1.0,3.0,43,0.00,,SKC,0.00,VWS V14.01,2013-01-10 16:32:00,
2013-01-10 11:33:00,42.8,21.9,30.30,NW,308,3.0,3.0,43,0.00,,SKC,0.00,VWS V14.01,2013-01-10 16:33:00,
2013-01-10 11:35:00,42.8,21.9,30.30,North,349,2.0,3.0,43,0.00,,SKC,0.00,VWS V14.01,2013-01-10 16:35:00,
2013-01-10 11:36:00,42.9,22.0,30.30,NNW,347,0.0,2.0,43,0.00,,SKC,0.00,VWS V14.01,2013-01-10 16:36:00,
2013-01-10 11:37:00,42.9,22.0,30.30,NNW,346,2.0,5.0,43,0.00,,SKC,0.00,VWS V14.01,2013-01-10 16:37:00,
2013-01-10 11:39:00,43.1,22.1,30.30,NNW,329,0.0,5.0,43,0.00,,SKC,0.00,VWS V14.01,2013-01-10 16:39:00,
2013-01-10 11:40:00,44.1,21.3,30.29,NW,312,5.0,5.0,40,0.00,,SKC,0.00,VWS V14.01,2013-01-10 16:40:00,
2013-01-10 11:41:00,43.1,21.6,30.30,NNW,332,2.0,5.0,42,0.00,,SKC,0.00,VWS V14.01,2013-01-10 16:41:00,
2013-01-10 11:42:00,43.1,21.6,30.30,NNW,329,0.0,5.0,42,0.00,,SKC,0.00,VWS V14.01,2013-01-10 16:42:00,
2013-01-10 11:44:00,43.1,21.6,30.29,NNW,329,0.0,5.0,42,0.00,,SKC,0.00,VWS V14.01,2013-01-10 16:44:00,
2013-01-10 11:45:00,43.1,21.6,30.29,NNW,329,0.0,5.0,42,0.00,,SKC,0.00,VWS V14.01,2013-01-10 16:45:00,
2013-01-10 11:46:00,43.1,21.6,30.29,NNW,329,0.0,0.0,42,0.00,,SKC,0.00,VWS V14.01,2013-01-10 16:46:00,
2013-01-10 11:47:00,43.1,21.6,30.29,NNW,329,0.0,0.0,42,0.00,,SKC,0.00,VWS V14.01,2013-01-10 16:47:00,
2013-01-10 11:48:00,43.1,21.6,30.29,NNW,329,0.0,0.0,42,0.00,,SKC,0.00,VWS V14.01,2013-01-10 16:48:00,
2013-01-10 11:50:00,43.1,21.6,30.29,NNW,329,0.0,0.0,42,0.00,,SKC,0.00,VWS V14.01,2013-01-10 16:50:00,
2013-01-10 11:51:00,43.1,21.6,30.29,NNW,329,0.0,0.0,42,0.00,,SKC,0.00,VWS V14.01,2013-01-10 16:51:00,
2013-01-10 11:53:00,43.1,21.6,30.29,NNW,337,0.0,5.0,42,0.00,,SKC,0.00,VWS V14.01,2013-01-10 16:53:00,
2013-01-10 11:55:00,43.1,21.6,30.29,NNW,339,1.0,2.0,42,0.00,,SKC,0.00,VWS V14.01,2013-01-10 16:55:00,
2013-01-10 11:57:00,43.1,21.6,30.29,NNW,342,1.0,2.0,42,0.00,,SKC,0.00,VWS V14.01,2013-01-10 16:57:00,
2013-01-10 11:58:00,43.1,21.6,30.29,NNW,342,1.0,2.0,42,0.00,,SKC,0.00,VWS V14.01,2013-01-10 16:58:00,
2013-01-10 12:00:00,43.1,21.6,30.29,North,356,10.0,10.0,42,0.00,,SKC,0.00,VWS V14.01,2013-01-10 17:00:00,
2013-01-10 12:02:00,43.1,21.6,30.29,North,356,10.0,10.0,42,0.00,,SKC,0.00,VWS V14.01,2013-01-10 17:02:00,
2013-01-10 12:03:00,43.1,21.6,30.29,North,356,10.0,10.0,42,0.00,,SKC,0.00,VWS V14.01,2013-01-10 17:03:00,
2013-01-10 12:04:00,43.1,21.6,30.29,North,356,10.0,10.0,42,0.00,,SKC,0.00,VWS V14.01,2013-01-10 17:04:00,
2013-01-10 12:05:00,44.8,22.0,30.30,South,172,3.0,6.0,40,0.00,,SKC,0.00,VWS V14.01,2013-01-10 17:05:00,
2013-01-10 12:06:00,43.1,21.6,30.29,North,356,10.0,10.0,42,0.00,,SKC,0.00,VWS V14.01,2013-01-10 17:06:00,
2013-01-10 12:08:00,43.3,21.8,30.29,NNW,335,2.0,10.0,42,0.00,,SKC,0.00,VWS V14.01,2013-01-10 17:08:00,
2013-01-10 12:09:00,43.3,22.3,30.29,NW,319,0.0,10.0,43,0.00,,SKC,0.00,VWS V14.01,2013-01-10 17:09:00,
2013-01-10 12:10:00,43.3,22.3,30.29,NW,319,0.0,10.0,43,0.00,,SKC,0.00,VWS V14.01,2013-01-10 17:10:00,
2013-01-10 12:11:00,43.3,22.3,30.29,NW,319,0.0,0.0,43,0.00,,SKC,0.00,VWS V14.01,2013-01-10 17:11:00,
2013-01-10 12:13:00,43.9,22.3,30.29,NW,313,0.0,5.0,42,0.00,,SKC,0.00,VWS V14.01,2013-01-10 17:13:00,
2013-01-10 12:14:00,44.1,21.9,30.28,NW,322,1.0,5.0,41,0.00,,SKC,0.00,VWS V14.01,2013-01-10 17:14:00,
2013-01-10 12:15:00,44.1,21.9,30.28,NW,322,1.0,5.0,41,0.00,,SKC,0.00,VWS V14.01,2013-01-10 17:15:00,
2013-01-10 12:16:00,44.1,21.9,30.28,SW,224,2.0,2.0,41,0.00,,SKC,0.00,VWS V14.01,2013-01-10 17:16:00,
2013-01-10 12:18:00,44.2,21.4,30.28,NNW,340,1.0,12.0,40,0.00,,SKC,0.00,VWS V14.01,2013-01-10 17:18:00,
2013-01-10 12:19:00,44.2,21.4,30.28,NNW,330,0.0,0.0,40,0.00,,SKC,0.00,VWS V14.01,2013-01-10 17:19:00,
2013-01-10 12:20:00,44.2,21.4,30.28,NNW,342,0.0,12.0,40,0.00,,SKC,0.00,VWS V14.01,2013-01-10 17:20:00,
2013-01-10 12:21:00,44.2,21.4,30.28,NNW,330,0.0,0.0,40,0.00,,SKC,0.00,VWS V14.01,2013-01-10 17:21:00,
2013-01-10 12:23:00,44.1,21.3,30.28,West,268,2.0,2.0,40,0.00,,SKC,0.00,VWS V14.01,2013-01-10 17:23:00,
2013-01-10 12:25:00,44.1,21.3,30.28,West,268,2.0,2.0,40,0.00,,SKC,0.00,VWS V14.01,2013-01-10 17:25:00,
2013-01-10 12:26:00,44.1,21.3,30.28,West,268,2.0,2.0,40,0.00,,SKC,0.00,VWS V14.01,2013-01-10 17:26:00,
2013-01-10 12:28:00,44.1,21.3,30.28,West,268,2.0,2.0,40,0.00,,SKC,0.00,VWS V14.01,2013-01-10 17:28:00,
2013-01-10 12:29:00,44.1,21.3,30.29,West,268,2.0,2.0,40,0.00,,SKC,0.00,VWS V14.01,2013-01-10 17:29:00,
2013-01-10 12:30:00,44.1,21.3,30.29,NNW,340,2.0,2.0,40,0.00,,SKC,0.00,VWS V14.01,2013-01-10 17:30:00,
2013-01-10 12:31:00,44.1,21.3,30.29,NNW,340,2.0,2.0,40,0.00,,SKC,0.00,VWS V14.01,2013-01-10 17:31:00,
2013-01-10 12:33:00,44.1,21.3,30.29,NNW,340,2.0,2.0,40,0.00,,SKC,0.00,VWS V14.01,2013-01-10 17:33:00,
2013-01-10 12:34:00,44.1,21.3,30.29,NNW,340,2.0,2.0,40,0.00,,SKC,0.00,VWS V14.01,2013-01-10 17:34:00,
2013-01-10 12:35:00,44.1,21.3,30.29,WNW,295,0.0,0.0,40,0.00,,SKC,0.00,VWS V14.01,2013-01-10 17:35:00,
2013-01-10 12:36:00,44.1,21.3,30.29,WNW,285,2.0,2.0,40,0.00,,SKC,0.00,VWS V14.01,2013-01-10 17:36:00,
2013-01-10 12:38:00,44.1,21.3,30.29,NW,312,5.0,5.0,40,0.00,,SKC,0.00,VWS V14.01,2013-01-10 17:38:00,
2013-01-10 12:40:00,44.1,21.3,30.29,NNW,336,1.0,5.0,40,0.00,,SKC,0.00,VWS V14.01,2013-01-10 17:40:00,
2013-01-10 12:41:00,44.1,21.3,30.29,North,353,1.0,5.0,40,0.00,,SKC,0.00,VWS V14.01,2013-01-10 17:41:00,
2013-01-10 12:43:00,44.6,21.8,30.29,NW,322,2.0,5.0,40,0.00,,SKC,0.00,VWS V14.01,2013-01-10 17:43:00,
2013-01-10 12:45:00,44.6,21.8,30.29,NW,326,0.0,2.0,40,0.00,,SKC,0.00,VWS V14.01,2013-01-10 17:45:00,
2013-01-10 12:46:00,44.6,21.8,30.29,NW,326,0.0,2.0,40,0.00,,SKC,0.00,VWS V14.01,2013-01-10 17:46:00,
2013-01-10 12:48:00,44.6,21.8,30.29,NW,319,3.0,3.0,40,0.00,,SKC,0.00,VWS V14.01,2013-01-10 17:48:00,
2013-01-10 12:50:00,44.6,21.8,30.29,NW,319,3.0,3.0,40,0.00,,SKC,0.00,VWS V14.01,2013-01-10 17:50:00,
2013-01-10 12:51:00,44.6,21.8,30.29,NW,309,2.0,3.0,40,0.00,,SKC,0.00,VWS V14.01,2013-01-10 17:51:00,
2013-01-10 12:53:00,44.6,21.8,30.29,NW,319,3.0,3.0,40,0.00,,SKC,0.00,VWS V14.01,2013-01-10 17:53:00,
2013-01-10 12:55:00,44.6,21.8,30.29,NNW,340,0.0,2.0,40,0.00,,SKC,0.00,VWS V14.01,2013-01-10 17:55:00,
2013-01-10 12:56:00,44.6,21.8,30.29,NNW,340,0.0,2.0,40,0.00,,SKC,0.00,VWS V14.01,2013-01-10 17:56:00,
2013-01-10 12:58:00,44.6,21.8,30.30,NW,318,5.0,5.0,40,0.00,,SKC,0.00,VWS V14.01,2013-01-10 17:58:00,
2013-01-10 13:00:00,44.6,21.8,30.30,NW,315,0.0,5.0,40,0.00,,SKC,0.00,VWS V14.01,2013-01-10 18:00:00,
2013-01-10 13:01:00,44.6,21.8,30.30,North,353,6.0,6.0,40,0.00,,SKC,0.00,VWS V14.01,2013-01-10 18:01:00,
2013-01-10 13:04:00,44.8,22.0,30.30,South,172,3.0,3.0,40,0.00,,SKC,0.00,VWS V14.01,2013-01-10 18:04:00,
2013-01-10 13:05:00,44.9,22.1,30.30,WNW,302,3.0,4.0,40,0.00,,SKC,0.00,VWS V14.01,2013-01-10 18:05:00,
2013-01-10 13:06:00,44.9,22.1,30.30,North,356,6.0,8.0,40,0.00,,SKC,0.00,VWS V14.01,2013-01-10 18:06:00,
2013-01-10 13:07:00,44.9,22.1,30.30,North,357,3.0,8.0,40,0.00,,SKC,0.00,VWS V14.01,2013-01-10 18:07:00,
2013-01-10 13:09:00,44.9,22.1,30.30,NNW,344,0.0,0.0,40,0.00,,SKC,0.00,VWS V14.01,2013-01-10 18:09:00,
2013-01-10 13:10:00,44.9,22.1,30.30,NNW,344,0.0,8.0,40,0.00,,SKC,0.00,VWS V14.01,2013-01-10 18:10:00,
2013-01-10 13:11:00,44.9,22.1,30.30,North,354,7.0,7.0,40,0.00,,SKC,0.00,VWS V14.01,2013-01-10 18:11:00,
2013-01-10 13:12:00,44.9,22.1,30.30,North,354,7.0,7.0,40,0.00,,SKC,0.00,VWS V14.01,2013-01-10 18:12:00,
2013-01-10 13:15:00,44.9,22.1,30.30,WNW,295,2.0,2.0,40,0.00,,SKC,0.00,VWS V14.01,2013-01-10 18:15:00,
2013-01-10 13:16:00,44.9,22.1,30.30,WNW,295,2.0,2.0,40,0.00,,SKC,0.00,VWS V14.01,2013-01-10 18:16:00,
2013-01-10 13:17:00,44.9,22.1,30.30,WNW,295,2.0,2.0,40,0.00,,SKC,0.00,VWS V14.01,2013-01-10 18:17:00,
2013-01-10 13:20:00,44.9,22.1,30.30,NW,304,0.0,7.0,40,0.00,,SKC,0.00,VWS V14.01,2013-01-10 18:20:00,
2013-01-10 13:21:00,44.9,22.1,30.30,NW,304,0.0,7.0,40,0.00,,SKC,0.00,VWS V14.01,2013-01-10 18:21:00,
2013-01-10 13:22:00,44.9,22.1,30.30,NW,304,0.0,7.0,40,0.00,,SKC,0.00,VWS V14.01,2013-01-10 18:22:00,
2013-01-10 13:25:00,44.9,22.1,30.30,NW,312,3.0,6.0,40,0.00,,SKC,0.00,VWS V14.01,2013-01-10 18:25:00,
2013-01-10 13:27:00,44.9,22.1,30.30,NW,309,3.0,6.0,40,0.00,,SKC,0.00,VWS V14.01,2013-01-10 18:27:00,
2013-01-10 13:28:00,44.8,22.0,30.30,NNW,335,3.0,6.0,40,0.00,,SKC,0.00,VWS V14.01,2013-01-10 18:28:00,
2013-01-10 13:30:00,44.8,22.0,30.31,NW,320,4.0,6.0,40,0.00,,SKC,0.00,VWS V14.01,2013-01-10 18:30:00,
2013-01-10 13:31:00,44.8,22.0,30.31,NW,320,0.0,5.0,40,0.00,,SKC,0.00,VWS V14.01,2013-01-10 18:31:00,
2013-01-10 13:32:00,44.8,22.0,30.31,NW,320,0.0,5.0,40,0.00,,SKC,0.00,VWS V14.01,2013-01-10 18:32:00,
2013-01-10 13:33:00,44.8,21.4,30.31,NNW,337,6.0,6.0,39,0.00,,SKC,0.00,VWS V14.01,2013-01-10 18:33:00,
2013-01-10 13:35:00,44.6,21.2,30.31,North,349,1.0,6.0,39,0.00,,SKC,0.00,VWS V14.01,2013-01-10 18:35:00,
2013-01-10 13:36:00,44.6,21.2,30.31,North,349,1.0,1.0,39,0.00,,SKC,0.00,VWS V14.01,2013-01-10 18:36:00,
2013-01-10 13:37:00,44.6,21.2,30.31,North,349,1.0,1.0,39,0.00,,SKC,0.00,VWS V14.01,2013-01-10 18:37:00,
2013-01-10 13:38:00,44.6,21.2,30.31,NNW,339,1.0,1.0,39,0.00,,SKC,0.00,VWS V14.01,2013-01-10 18:38:00,
2013-01-10 13:40:00,44.6,21.2,30.31,NNW,330,2.0,2.0,39,0.00,,SKC,0.00,VWS V14.01,2013-01-10 18:40:00,
2013-01-10 13:41:00,44.6,21.2,30.31,NNW,347,5.0,5.0,39,0.00,,SKC,0.00,VWS V14.01,2013-01-10 18:41:00,
2013-01-10 13:42:00,44.6,21.2,30.31,NNW,347,5.0,5.0,39,0.00,,SKC,0.00,VWS V14.01,2013-01-10 18:42:00,
2013-01-10 13:43:00,44.6,21.2,30.31,NNW,335,4.0,5.0,39,0.00,,SKC,0.00,VWS V14.01,2013-01-10 18:43:00,
2013-01-10 13:44:00,44.6,21.2,30.31,NNW,335,4.0,5.0,39,0.00,,SKC,0.00,VWS V14.01,2013-01-10 18:44:00,
2013-01-10 13:45:00,44.9,22.1,30.33,NNW,330,0.0,5.0,40,0.00,,SKC,0.00,VWS V14.01,2013-01-10 18:45:00,
2013-01-10 13:46:00,44.6,21.2,30.31,NNW,347,0.0,4.0,39,0.00,,SKC,0.00,VWS V14.01,2013-01-10 18:46:00,
2013-01-10 13:48:00,44.8,21.4,30.31,NW,325,0.0,4.0,39,0.00,,SKC,0.00,VWS V14.01,2013-01-10 18:48:00,
2013-01-10 13:49:00,44.8,22.0,30.31,NNW,337,2.0,7.0,40,0.00,,SKC,0.00,VWS V14.01,2013-01-10 18:49:00,
2013-01-10 13:50:00,44.8,22.0,30.31,NNW,337,2.0,7.0,40,0.00,,SKC,0.00,VWS V14.01,2013-01-10 18:50:00,
2013-01-10 13:51:00,44.8,22.0,30.31,North,356,5.0,5.0,40,0.00,,SKC,0.00,VWS V14.01,2013-01-10 18:51:00,
2013-01-10 13:53:00,44.8,21.4,30.31,SSE,164,2.0,7.0,39,0.00,,SKC,0.00,VWS V14.01,2013-01-10 18:53:00,
2013-01-10 13:54:00,44.8,21.4,30.31,NW,326,3.0,14.0,39,0.00,,SKC,0.00,VWS V14.01,2013-01-10 18:54:00,
2013-01-10 13:55:00,44.8,21.4,30.31,SE,143,3.0,14.0,39,0.00,,SKC,0.00,VWS V14.01,2013-01-10 18:55:00,
2013-01-10 13:56:00,44.8,21.4,30.31,NNW,347,7.0,10.0,39,0.00,,SKC,0.00,VWS V14.01,2013-01-10 18:56:00,
2013-01-10 13:59:00,44.8,21.4,30.32,NNW,347,7.0,10.0,39,0.00,,SKC,0.00,VWS V14.01,2013-01-10 18:59:00,
2013-01-10 14:00:00,44.8,21.4,30.32,NNW,347,7.0,10.0,39,0.00,,SKC,0.00,VWS V14.01,2013-01-10 19:00:00,
2013-01-10 14:01:00,44.8,21.4,30.32,NNW,347,7.0,7.0,39,0.00,,SKC,0.00,VWS V14.01,2013-01-10 19:01:00,
2013-01-10 14:04:00,44.8,22.5,30.32,NW,322,2.0,10.0,41,0.00,,SKC,0.00,VWS V14.01,2013-01-10 19:04:00,
2013-01-10 14:05:00,44.8,22.5,30.32,NNW,333,3.0,3.0,41,0.00,,SKC,0.00,VWS V14.01,2013-01-10 19:05:00,
2013-01-10 14:07:00,44.8,22.5,30.32,NNW,333,3.0,3.0,41,0.00,,SKC,0.00,VWS V14.01,2013-01-10 19:07:00,
2013-01-10 14:09:00,45.2,21.7,30.32,NNW,343,5.0,5.0,39,0.00,,SKC,0.00,VWS V14.01,2013-01-10 19:09:00,
2013-01-10 14:10:00,45.2,21.7,30.32,SE,140,1.0,5.0,39,0.00,,SKC,0.00,VWS V14.01,2013-01-10 19:10:00,
2013-01-10 14:12:00,45.2,21.1,30.32,NNW,329,11.0,15.0,38,0.00,,SKC,0.00,VWS V14.01,2013-01-10 19:12:00,
2013-01-10 14:14:00,44.9,20.9,30.33,NW,319,2.0,3.0,38,0.00,,SKC,0.00,VWS V14.01,2013-01-10 19:14:00,
2013-01-10 14:15:00,44.9,20.9,30.33,NNW,332,4.0,4.0,38,0.00,,SKC,0.00,VWS V14.01,2013-01-10 19:15:00,
2013-01-10 14:16:00,44.9,20.9,30.33,NNW,336,10.0,12.0,38,0.00,,SKC,0.00,VWS V14.01,2013-01-10 19:16:00,
2013-01-10 14:17:00,44.8,20.8,30.33,NNW,343,11.0,12.0,38,0.00,,SKC,0.00,VWS V14.01,2013-01-10 19:17:00,
2013-01-10 14:20:00,44.8,20.8,30.33,NNW,343,11.0,11.0,38,0.00,,SKC,0.00,VWS V14.01,2013-01-10 19:20:00,
2013-01-10 14:21:00,44.8,20.8,30.33,NNW,343,11.0,11.0,38,0.00,,SKC,0.00,VWS V14.01,2013-01-10 19:21:00,
2013-01-10 14:23:00,44.9,20.9,30.33,NNW,342,1.0,11.0,38,0.00,,SKC,0.00,VWS V14.01,2013-01-10 19:23:00,
2013-01-10 14:25:00,44.9,20.9,30.33,SE,138,2.0,13.0,38,0.00,,SKC,0.00,VWS V14.01,2013-01-10 19:25:00,
2013-01-10 14:26:00,44.9,22.1,30.33,North,356,7.0,13.0,40,0.00,,SKC,0.00,VWS V14.01,2013-01-10 19:26:00,
2013-01-10 14:28:00,44.9,22.1,30.33,NNW,328,5.0,13.0,40,0.00,,SKC,0.00,VWS V14.01,2013-01-10 19:28:00,
2013-01-10 14:30:00,44.9,22.1,30.33,NNW,336,7.0,7.0,40,0.00,,SKC,0.00,VWS V14.01,2013-01-10 19:30:00,
2013-01-10 14:31:00,44.9,22.1,30.33,NW,306,5.0,7.0,40,0.00,,SKC,0.00,VWS V14.01,2013-01-10 19:31:00,
2013-01-10 14:33:00,44.8,21.4,30.33,NNW,344,2.0,11.0,39,0.00,,SKC,0.00,VWS V14.01,2013-01-10 19:33:00,
2013-01-10 14:35:00,44.8,21.4,30.33,NNW,329,1.0,2.0,39,0.00,,SKC,0.00,VWS V14.01,2013-01-10 19:35:00,
2013-01-10 14:36:00,44.8,22.0,30.33,NNW,330,2.0,2.0,40,0.00,,SKC,0.00,VWS V14.01,2013-01-10 19:36:00,
2013-01-10 14:38:00,44.8,21.4,30.33,SSE,164,4.0,4.0,39,0.00,,SKC,0.00,VWS V14.01,2013-01-10 19:38:00,
2013-01-10 14:40:00,44.9,22.1,30.33,NNW,339,1.0,5.0,40,0.00,,SKC,0.00,VWS V14.01,2013-01-10 19:40:00,
2013-01-10 14:41:00,44.9,22.1,30.33,NW,304,2.0,5.0,40,0.00,,SKC,0.00,VWS V14.01,2013-01-10 19:41:00,
2013-01-10 14:43:00,44.9,22.1,30.33,WNW,289,4.0,5.0,40,0.00,,SKC,0.00,VWS V14.01,2013-01-10 19:43:00,
2013-01-10 14:45:00,44.9,22.1,30.33,NNW,330,0.0,5.0,40,0.00,,SKC,0.00,VWS V14.01,2013-01-10 19:45:00,
2013-01-10 14:46:00,44.9,22.1,30.33,NW,325,5.0,6.0,40,0.00,,SKC,0.00,VWS V14.01,2013-01-10 19:46:00,
2013-01-10 14:48:00,44.9,22.1,30.33,NNW,336,2.0,6.0,40,0.00,,SKC,0.00,VWS V14.01,2013-01-10 19:48:00,
2013-01-10 14:50:00,44.9,20.9,30.33,North,356,2.0,6.0,38,0.00,,SKC,0.00,VWS V14.01,2013-01-10 19:50:00,
2013-01-10 14:51:00,44.9,20.9,30.33,NNW,335,3.0,6.0,38,0.00,,SKC,0.00,VWS V14.01,2013-01-10 19:51:00,
2013-01-10 14:54:00,44.9,20.9,30.33,North,357,11.0,11.0,38,0.00,,SKC,0.00,VWS V14.01,2013-01-10 19:54:00,
2013-01-10 14:55:00,44.9,20.9,30.33,North,352,3.0,11.0,38,0.00,,SKC,0.00,VWS V14.01,2013-01-10 19:55:00,
2013-01-10 14:56:00,44.8,20.8,30.33,NNW,337,5.0,10.0,38,0.00,,SKC,0.00,VWS V14.01,2013-01-10 19:56:00,
2013-01-10 14:59:00,44.8,20.8,30.34,SE,140,0.0,10.0,38,0.00,,SKC,0.00,VWS V14.01,2013-01-10 19:59:00,
2013-01-10 15:00:00,44.8,20.8,30.34,SE,140,0.0,10.0,38,0.00,,SKC,0.00,VWS V14.01,2013-01-10 20:00:00,
2013-01-10 15:01:00,44.9,20.9,30.34,SE,143,0.0,0.0,38,0.00,,SKC,0.00,VWS V14.01,2013-01-10 20:01:00,
2013-01-10 15:02:00,44.9,22.6,30.34,NNW,342,6.0,6.0,41,0.00,,SKC,0.00,VWS V14.01,2013-01-10 20:02:00,
2013-01-10 15:04:00,44.9,22.6,30.34,NW,322,3.0,6.0,41,0.00,,SKC,0.00,VWS V14.01,2013-01-10 20:04:00,
2013-01-10 15:05:00,44.9,22.6,30.34,NNW,344,0.0,6.0,41,0.00,,SKC,0.00,VWS V14.01,2013-01-10 20:05:00,
2013-01-10 15:06:00,44.9,20.9,30.34,NNW,347,2.0,2.0,38,0.00,,SKC,0.00,VWS V14.01,2013-01-10 20:06:00,
2013-01-10 15:07:00,44.9,20.9,30.34,NNW,347,2.0,2.0,38,0.00,,SKC,0.00,VWS V14.01,2013-01-10 20:07:00,
2013-01-10 15:10:00,44.9,20.9,30.34,NNW,344,0.0,0.0,38,0.00,,SKC,0.00,VWS V14.01,2013-01-10 20:10:00,
2013-01-10 15:11:00,44.9,20.9,30.34,NNW,335,7.0,7.0,38,0.00,,SKC,0.00,VWS V14.01,2013-01-10 20:11:00,
2013-01-10 15:12:00,44.9,20.9,30.34,SE,141,7.0,7.0,38,0.00,,SKC,0.00,VWS V14.01,2013-01-10 20:12:00,
2013-01-10 15:15:00,44.9,20.9,30.34,SE,138,13.0,13.0,38,0.00,,SKC,0.00,VWS V14.01,2013-01-10 20:15:00,
2013-01-10 15:16:00,44.9,20.9,30.34,SE,138,13.0,13.0,38,0.00,,SKC,0.00,VWS V14.01,2013-01-10 20:16:00,
2013-01-10 15:17:00,44.8,20.8,30.34,NNW,346,2.0,13.0,38,0.00,,SKC,0.00,VWS V14.01,2013-01-10 20:17:00,
2013-01-10 15:20:00,44.8,20.8,30.34,SE,137,5.0,6.0,38,0.00,,SKC,0.00,VWS V14.01,2013-01-10 20:20:00,
2013-01-10 15:22:00,44.6,20.6,30.34,NNW,332,1.0,6.0,38,0.00,,SKC,0.00,VWS V14.01,2013-01-10 20:22:00,
2013-01-10 15:23:00,44.6,20.6,30.34,North,357,0.0,6.0,38,0.00,,SKC,0.00,VWS V14.01,2013-01-10 20:23:00,
2013-01-10 15:25:00,44.5,20.5,30.34,NNW,335,2.0,10.0,38,0.00,,SKC,0.00,VWS V14.01,2013-01-10 20:25:00,
2013-01-10 15:28:00,44.5,20.5,30.34,NNW,340,5.0,10.0,38,0.00,,SKC,0.00,VWS V14.01,2013-01-10 20:28:00,
2013-01-10 15:30:00,41.9,21.6,30.38,North,350,0.0,0.0,44,0.00,,SKC,0.00,VWS V14.01,2013-01-10 20:30:00,
2013-01-10 15:31:00,44.5,20.5,30.35,NNW,342,5.0,5.0,38,0.00,,SKC,0.00,VWS V14.01,2013-01-10 20:31:00,
2013-01-10 15:33:00,44.5,20.5,30.35,North,349,2.0,5.0,38,0.00,,SKC,0.00,VWS V14.01,2013-01-10 20:33:00,
2013-01-10 15:35:00,44.5,20.5,30.35,North,349,2.0,5.0,38,0.00,,SKC,0.00,VWS V14.01,2013-01-10 20:35:00,
2013-01-10 15:36:00,44.5,20.5,30.35,NW,322,1.0,2.0,38,0.00,,SKC,0.00,VWS V14.01,2013-01-10 20:36:00,
2013-01-10 15:38:00,44.5,20.5,30.35,NNW,340,5.0,5.0,38,0.00,,SKC,0.00,VWS V14.01,2013-01-10 20:38:00,
2013-01-10 15:39:00,44.5,20.5,30.35,NNW,339,7.0,7.0,38,0.00,,SKC,0.00,VWS V14.01,2013-01-10 20:39:00,
2013-01-10 15:40:00,44.5,20.5,30.35,NW,318,0.0,7.0,38,0.00,,SKC,0.00,VWS V14.01,2013-01-10 20:40:00,
2013-01-10 15:41:00,44.5,20.5,30.35,NW,318,0.0,0.0,38,0.00,,SKC,0.00,VWS V14.01,2013-01-10 20:41:00,
2013-01-10 15:43:00,44.3,20.3,30.35,NNW,339,0.0,0.0,38,0.00,,SKC,0.00,VWS V14.01,2013-01-10 20:43:00,
2013-01-10 15:44:00,44.2,20.2,30.35,NNW,339,0.0,0.0,38,0.00,,SKC,0.00,VWS V14.01,2013-01-10 20:44:00,
2013-01-10 15:45:00,44.2,20.2,30.35,NNW,339,0.0,0.0,38,0.00,,SKC,0.00,VWS V14.01,2013-01-10 20:45:00,
2013-01-10 15:46:00,44.2,22.0,30.35,NNW,340,0.0,0.0,41,0.00,,SKC,0.00,VWS V14.01,2013-01-10 20:46:00,
2013-01-10 15:48:00,43.9,21.7,30.35,NNW,340,0.0,0.0,41,0.00,,SKC,0.00,VWS V14.01,2013-01-10 20:48:00,
2013-01-10 15:49:00,43.9,21.7,30.35,North,349,1.0,1.0,41,0.00,,SKC,0.00,VWS V14.01,2013-01-10 20:49:00,
2013-01-10 15:50:00,43.9,21.7,30.35,North,349,1.0,1.0,41,0.00,,SKC,0.00,VWS V14.01,2013-01-10 20:50:00,
2013-01-10 15:51:00,43.8,21.6,30.35,NW,325,0.0,1.0,41,0.00,,SKC,0.00,VWS V14.01,2013-01-10 20:51:00,
2013-01-10 15:53:00,43.8,21.6,30.35,NNW,339,1.0,8.0,41,0.00,,SKC,0.00,VWS V14.01,2013-01-10 20:53:00,
2013-01-10 15:54:00,43.8,21.6,30.35,NNW,339,1.0,8.0,41,0.00,,SKC,0.00,VWS V14.01,2013-01-10 20:54:00,
2013-01-10 15:55:00,43.8,21.6,30.35,NNW,339,1.0,8.0,41,0.00,,SKC,0.00,VWS V14.01,2013-01-10 20:55:00,
2013-01-10 15:57:00,43.8,21.6,30.35,North,350,0.0,1.0,41,0.00,,SKC,0.00,VWS V14.01,2013-01-10 20:57:00,
2013-01-10 15:58:00,43.8,21.6,30.35,North,349,2.0,2.0,41,0.00,,SKC,0.00,VWS V14.01,2013-01-10 20:58:00,
2013-01-10 15:59:00,43.8,21.6,30.36,North,349,2.0,2.0,41,0.00,,SKC,0.00,VWS V14.01,2013-01-10 20:59:00,
2013-01-10 16:00:00,43.8,21.6,30.36,North,349,2.0,2.0,41,0.00,,SKC,0.00,VWS V14.01,2013-01-10 21:00:00,
2013-01-10 16:02:00,43.5,21.4,30.36,NNW,347,0.0,2.0,41,0.00,,SKC,0.00,VWS V14.01,2013-01-10 21:02:00,
2013-01-10 16:03:00,43.3,21.2,30.36,WNW,299,0.0,2.0,41,0.00,,SKC,0.00,VWS V14.01,2013-01-10 21:03:00,
2013-01-10 16:04:00,43.3,21.2,30.36,North,357,0.0,2.0,41,0.00,,SKC,0.00,VWS V14.01,2013-01-10 21:04:00,
2013-01-10 16:05:00,43.3,21.2,30.36,North,357,0.0,2.0,41,0.00,,SKC,0.00,VWS V14.01,2013-01-10 21:05:00,
2013-01-10 16:07:00,43.2,22.2,30.36,North,357,0.0,5.0,43,0.00,,SKC,0.00,VWS V14.01,2013-01-10 21:07:00,
2013-01-10 16:09:00,43.1,22.1,30.36,North,357,0.0,5.0,43,0.00,,SKC,0.00,VWS V14.01,2013-01-10 21:09:00,
2013-01-10 16:10:00,40.6,21.5,30.40,NNW,329,0.0,0.0,46,0.00,,SKC,0.00,VWS V14.01,2013-01-10 21:10:00,
2013-01-10 16:12:00,42.9,22.5,30.36,North,357,0.0,0.0,44,0.00,,SKC,0.00,VWS V14.01,2013-01-10 21:12:00,
2013-01-10 16:14:00,42.9,22.5,30.36,North,357,0.0,0.0,44,0.00,,SKC,0.00,VWS V14.01,2013-01-10 21:14:00,
2013-01-10 16:15:00,42.9,22.5,30.36,North,357,0.0,0.0,44,0.00,,SKC,0.00,VWS V14.01,2013-01-10 21:15:00,
2013-01-10 16:17:00,42.5,22.1,30.36,NNW,339,0.0,0.0,44,0.00,,SKC,0.00,VWS V14.01,2013-01-10 21:17:00,
2013-01-10 16:19:00,42.3,22.5,30.36,North,349,0.0,0.0,45,0.00,,SKC,0.00,VWS V14.01,2013-01-10 21:19:00,
2013-01-10 16:20:00,42.3,22.5,30.36,North,350,0.0,0.0,45,0.00,,SKC,0.00,VWS V14.01,2013-01-10 21:20:00,
2013-01-10 16:22:00,42.2,22.4,30.36,North,350,0.0,0.0,45,0.00,,SKC,0.00,VWS V14.01,2013-01-10 21:22:00,
2013-01-10 16:25:00,42.1,21.8,30.36,North,350,0.0,0.0,44,0.00,,SKC,0.00,VWS V14.01,2013-01-10 21:25:00,
2013-01-10 16:28:00,41.9,21.6,30.36,North,350,0.0,0.0,44,0.00,,SKC,0.00,VWS V14.01,2013-01-10 21:28:00,
2013-01-10 16:30:00,41.8,21.5,30.38,North,350,0.0,0.0,44,0.00,,SKC,0.00,VWS V14.01,2013-01-10 21:30:00,
2013-01-10 16:31:00,41.8,21.5,30.38,North,353,0.0,0.0,44,0.00,,SKC,0.00,VWS V14.01,2013-01-10 21:31:00,
2013-01-10 16:33:00,41.6,21.3,30.38,North,350,0.0,0.0,44,0.00,,SKC,0.00,VWS V14.01,2013-01-10 21:33:00,
2013-01-10 16:35:00,41.5,22.3,30.38,North,350,0.0,0.0,46,0.00,,SKC,0.00,VWS V14.01,2013-01-10 21:35:00,
2013-01-10 16:36:00,41.5,22.3,30.38,North,350,0.0,0.0,46,0.00,,SKC,0.00,VWS V14.01,2013-01-10 21:36:00,
2013-01-10 16:38:00,41.3,22.1,30.38,North,350,0.0,0.0,46,0.00,,SKC,0.00,VWS V14.01,2013-01-10 21:38:00,
2013-01-10 16:40:00,41.3,22.1,30.38,North,350,2.0,2.0,46,0.00,,SKC,0.00,VWS V14.01,2013-01-10 21:40:00,
2013-01-10 16:41:00,41.3,22.1,30.38,NNW,336,0.0,2.0,46,0.00,,SKC,0.00,VWS V14.01,2013-01-10 21:41:00,
2013-01-10 16:44:00,41.3,22.1,30.38,NNW,337,0.0,2.0,46,0.00,,SKC,0.00,VWS V14.01,2013-01-10 21:44:00,
2013-01-10 16:45:00,41.3,22.1,30.38,NNW,336,0.0,2.0,46,0.00,,SKC,0.00,VWS V14.01,2013-01-10 21:45:00,
2013-01-10 16:46:00,41.3,22.1,30.38,NNW,344,0.0,2.0,46,0.00,,SKC,0.00,VWS V14.01,2013-01-10 21:46:00,
2013-01-10 16:49:00,41.3,22.1,30.38,NNW,330,0.0,3.0,46,0.00,,SKC,0.00,VWS V14.01,2013-01-10 21:49:00,
2013-01-10 16:50:00,41.3,22.1,30.38,NNW,330,0.0,3.0,46,0.00,,SKC,0.00,VWS V14.01,2013-01-10 21:50:00,
2013-01-10 16:51:00,41.3,22.1,30.38,NNW,330,0.0,0.0,46,0.00,,SKC,0.00,VWS V14.01,2013-01-10 21:51:00,
2013-01-10 16:54:00,41.2,22.0,30.38,NNW,329,0.0,0.0,46,0.00,,SKC,0.00,VWS V14.01,2013-01-10 21:54:00,
2013-01-10 16:55:00,38.6,23.0,30.40,NNW,333,1.0,3.0,53,0.00,,SKC,0.00,VWS V14.01,2013-01-10 21:55:00,
2013-01-10 16:57:00,41.1,21.9,30.38,NNW,330,0.0,0.0,46,0.00,,SKC,0.00,VWS V14.01,2013-01-10 21:57:00,
2013-01-10 16:59:00,40.9,22.2,30.40,NNW,330,0.0,0.0,47,0.00,,SKC,0.00,VWS V14.01,2013-01-10 21:59:00,
2013-01-10 17:00:00,40.9,22.2,30.40,NNW,330,0.0,0.0,47,0.00,,SKC,0.00,VWS V14.01,2013-01-10 22:00:00,
2013-01-10 17:02:00,40.9,22.2,30.40,NNW,330,0.0,0.0,47,0.00,,SKC,0.00,VWS V14.01,2013-01-10 22:02:00,
2013-01-10 17:03:00,40.9,22.2,30.40,NNW,330,0.0,0.0,47,0.00,,SKC,0.00,VWS V14.01,2013-01-10 22:03:00,
2013-01-10 17:04:00,40.9,21.7,30.40,NNW,329,0.0,0.0,46,0.00,,SKC,0.00,VWS V14.01,2013-01-10 22:04:00,
2013-01-10 17:05:00,38.3,23.1,30.41,NNW,332,0.0,0.0,54,0.00,,SKC,0.00,VWS V14.01,2013-01-10 22:05:00,
2013-01-10 17:07:00,40.6,21.5,30.40,NNW,330,0.0,0.0,46,0.00,,SKC,0.00,VWS V14.01,2013-01-10 22:07:00,
2013-01-10 17:09:00,40.6,21.5,30.40,NNW,330,0.0,0.0,46,0.00,,SKC,0.00,VWS V14.01,2013-01-10 22:09:00,
2013-01-10 17:10:00,38.3,23.1,30.41,NNW,333,0.0,0.0,54,0.00,,SKC,0.00,VWS V14.01,2013-01-10 22:10:00,
2013-01-10 17:12:00,40.5,21.9,30.40,NNW,333,2.0,3.0,47,0.00,,SKC,0.00,VWS V14.01,2013-01-10 22:12:00,
2013-01-10 17:14:00,40.5,21.9,30.40,NNW,333,1.0,3.0,47,0.00,,SKC,0.00,VWS V14.01,2013-01-10 22:14:00,
2013-01-10 17:15:00,40.5,21.9,30.40,NNW,333,1.0,1.0,47,0.00,,SKC,0.00,VWS V14.01,2013-01-10 22:15:00,
2013-01-10 17:17:00,40.5,21.9,30.40,NNW,333,1.0,1.0,47,0.00,,SKC,0.00,VWS V14.01,2013-01-10 22:17:00,
2013-01-10 17:19:00,40.5,21.9,30.40,NNW,333,0.0,1.0,47,0.00,,SKC,0.00,VWS V14.01,2013-01-10 22:19:00,
2013-01-10 17:20:00,40.3,21.7,30.40,NNW,333,0.0,0.0,47,0.00,,SKC,0.00,VWS V14.01,2013-01-10 22:20:00,
2013-01-10 17:22:00,39.9,22.8,30.40,NNW,333,0.0,0.0,50,0.00,,SKC,0.00,VWS V14.01,2013-01-10 22:22:00,
2013-01-10 17:24:00,39.6,23.0,30.40,NNW,332,0.0,0.0,51,0.00,,SKC,0.00,VWS V14.01,2013-01-10 22:24:00,
2013-01-10 17:25:00,39.3,22.7,30.40,NNW,333,0.0,0.0,51,0.00,,SKC,0.00,VWS V14.01,2013-01-10 22:25:00,
2013-01-10 17:27:00,39.2,22.6,30.40,NNW,333,0.0,0.0,51,0.00,,SKC,0.00,VWS V14.01,2013-01-10 22:27:00,
2013-01-10 17:29:00,39.2,22.6,30.41,NNW,333,0.0,0.0,51,0.00,,SKC,0.00,VWS V14.01,2013-01-10 22:29:00,
2013-01-10 17:30:00,39.2,22.6,30.41,NNW,333,0.0,0.0,51,0.00,,SKC,0.00,VWS V14.01,2013-01-10 22:30:00,
2013-01-10 17:32:00,39.2,22.6,30.41,NNW,333,0.0,0.0,51,0.00,,SKC,0.00,VWS V14.01,2013-01-10 22:32:00,
2013-01-10 17:34:00,38.8,22.2,30.41,NNW,335,0.0,0.0,51,0.00,,SKC,0.00,VWS V14.01,2013-01-10 22:34:00,
2013-01-10 17:35:00,38.9,22.3,30.41,NNW,333,0.0,0.0,51,0.00,,SKC,0.00,VWS V14.01,2013-01-10 22:35:00,
2013-01-10 17:38:00,38.9,21.9,30.41,NNW,335,0.0,0.0,50,0.00,,SKC,0.00,VWS V14.01,2013-01-10 22:38:00,
2013-01-10 17:39:00,38.9,21.9,30.41,NNW,335,0.0,0.0,50,0.00,,SKC,0.00,VWS V14.01,2013-01-10 22:39:00,
2013-01-10 17:40:00,38.9,21.9,30.41,NNW,333,0.0,0.0,50,0.00,,SKC,0.00,VWS V14.01,2013-01-10 22:40:00,
2013-01-10 17:43:00,38.9,21.9,30.41,NNW,333,0.0,0.0,50,0.00,,SKC,0.00,VWS V14.01,2013-01-10 22:43:00,
2013-01-10 17:45:00,38.9,21.9,30.40,NNW,335,0.0,0.0,50,0.00,,SKC,0.00,VWS V14.01,2013-01-10 22:45:00,
2013-01-10 17:46:00,38.8,21.8,30.40,NNW,335,0.0,0.0,50,0.00,,SKC,0.00,VWS V14.01,2013-01-10 22:46:00,
2013-01-10 17:48:00,38.8,22.7,30.40,NNW,335,1.0,1.0,52,0.00,,SKC,0.00,VWS V14.01,2013-01-10 22:48:00,
2013-01-10 17:50:00,38.6,22.5,30.40,NNW,343,2.0,3.0,52,0.00,,SKC,0.00,VWS V14.01,2013-01-10 22:50:00,
2013-01-10 17:51:00,38.6,22.5,30.40,NNW,343,1.0,3.0,52,0.00,,SKC,0.00,VWS V14.01,2013-01-10 22:51:00,
2013-01-10 17:53:00,38.6,23.0,30.40,NNW,333,1.0,3.0,53,0.00,,SKC,0.00,VWS V14.01,2013-01-10 22:53:00,
2013-01-10 17:55:00,38.6,23.0,30.40,NNW,333,0.0,1.0,53,0.00,,SKC,0.00,VWS V14.01,2013-01-10 22:55:00,
2013-01-10 17:56:00,38.6,23.0,30.40,NNW,333,0.0,1.0,53,0.00,,SKC,0.00,VWS V14.01,2013-01-10 22:56:00,
2013-01-10 17:58:00,38.6,23.0,30.41,NNW,332,0.0,1.0,53,0.00,,SKC,0.00,VWS V14.01,2013-01-10 22:58:00,
2013-01-10 18:00:00,38.5,22.9,30.41,NNW,333,0.0,0.0,53,0.00,,SKC,0.00,VWS V14.01,2013-01-10 23:00:00,
2013-01-10 18:01:00,38.5,22.9,30.41,NNW,333,0.0,0.0,53,0.00,,SKC,0.00,VWS V14.01,2013-01-10 23:01:00,
2013-01-10 18:04:00,38.3,23.1,30.41,NNW,332,0.0,0.0,54,0.00,,SKC,0.00,VWS V14.01,2013-01-10 23:04:00,
2013-01-10 18:05:00,38.3,23.1,30.41,NNW,332,0.0,0.0,54,0.00,,SKC,0.00,VWS V14.01,2013-01-10 23:05:00,
2013-01-10 18:06:00,38.3,23.1,30.41,NNW,333,0.0,0.0,54,0.00,,SKC,0.00,VWS V14.01,2013-01-10 23:06:00,
2013-01-10 18:09:00,38.3,23.1,30.41,NNW,333,0.0,0.0,54,0.00,,SKC,0.00,VWS V14.01,2013-01-10 23:09:00,
2013-01-10 18:10:00,38.3,23.1,30.41,NNW,333,0.0,0.0,54,0.00,,SKC,0.00,VWS V14.01,2013-01-10 23:10:00,
2013-01-10 18:11:00,38.3,23.1,30.41,NNW,333,0.0,0.0,54,0.00,,SKC,0.00,VWS V14.01,2013-01-10 23:11:00,
2013-01-10 18:14:00,38.3,21.8,30.42,NNW,332,0.0,0.0,51,0.00,,SKC,0.00,VWS V14.01,2013-01-10 23:14:00,
2013-01-10 18:15:00,38.3,21.8,30.42,NNW,332,0.0,0.0,51,0.00,,SKC,0.00,VWS V14.01,2013-01-10 23:15:00,
2013-01-10 18:16:00,38.3,21.8,30.42,NNW,333,0.0,0.0,51,0.00,,SKC,0.00,VWS V14.01,2013-01-10 23:16:00,
2013-01-10 18:19:00,38.3,21.8,30.42,NNW,333,0.0,0.0,51,0.00,,SKC,0.00,VWS V14.01,2013-01-10 23:19:00,
2013-01-10 18:20:00,38.3,21.8,30.42,NNW,332,0.0,0.0,51,0.00,,SKC,0.00,VWS V14.01,2013-01-10 23:20:00,
2013-01-10 18:21:00,38.3,21.8,30.42,NNW,333,0.0,0.0,51,0.00,,SKC,0.00,VWS V14.01,2013-01-10 23:21:00,
2013-01-10 18:24:00,38.0,22.9,30.42,NNW,333,0.0,0.0,54,0.00,,SKC,0.00,VWS V14.01,2013-01-10 23:24:00,
2013-01-10 18:25:00,38.0,22.9,30.42,NNW,333,0.0,0.0,54,0.00,,SKC,0.00,VWS V14.01,2013-01-10 23:25:00,
2013-01-10 18:26:00,37.9,22.8,30.42,NNW,333,0.0,0.0,54,0.00,,SKC,0.00,VWS V14.01,2013-01-10 23:26:00,
2013-01-10 18:29:00,37.3,23.1,30.42,NNW,332,0.0,0.0,56,0.00,,SKC,0.00,VWS V14.01,2013-01-10 23:29:00,
2013-01-10 18:30:00,37.5,22.4,30.43,SE,141,1.0,1.0,54,0.00,,SKC,0.00,VWS V14.01,2013-01-10 23:30:00,
2013-01-10 18:31:00,37.0,23.6,30.42,NNW,335,0.0,0.0,58,0.00,,SKC,0.00,VWS V14.01,2013-01-10 23:31:00,
2013-01-10 18:34:00,36.6,23.2,30.42,NNW,333,0.0,0.0,58,0.00,,SKC,0.00,VWS V14.01,2013-01-10 23:34:00,
2013-01-10 18:35:00,36.6,23.2,30.42,NNW,333,0.0,0.0,58,0.00,,SKC,0.00,VWS V14.01,2013-01-10 23:35:00,
2013-01-10 18:37:00,36.5,22.7,30.42,NNW,333,0.0,0.0,57,0.00,,SKC,0.00,VWS V14.01,2013-01-10 23:37:00,
2013-01-10 18:39:00,36.5,22.7,30.42,NNW,333,0.0,0.0,57,0.00,,SKC,0.00,VWS V14.01,2013-01-10 23:39:00,
2013-01-10 18:40:00,37.5,22.4,30.43,North,357,0.0,2.0,54,0.00,,SKC,0.00,VWS V14.01,2013-01-10 23:40:00,
2013-01-10 18:42:00,36.3,22.1,30.42,NNW,333,0.0,0.0,56,0.00,,SKC,0.00,VWS V14.01,2013-01-10 23:42:00,
2013-01-10 18:45:00,36.3,22.1,30.42,NNW,333,0.0,0.0,56,0.00,,SKC,0.00,VWS V14.01,2013-01-10 23:45:00,
2013-01-10 18:47:00,36.2,22.5,30.42,NNW,333,0.0,0.0,57,0.00,,SKC,0.00,VWS V14.01,2013-01-10 23:47:00,
2013-01-10 18:50:00,36.0,23.1,30.42,NNW,333,0.0,0.0,59,0.00,,SKC,0.00,VWS V14.01,2013-01-10 23:50:00,
2013-01-10 18:52:00,35.8,22.9,30.42,NNW,332,0.0,0.0,59,0.00,,SKC,0.00,VWS V14.01,2013-01-10 23:52:00,
2013-01-10 18:53:00,35.8,22.9,30.42,NNW,333,0.0,0.0,59,0.00,,SKC,0.00,VWS V14.01,2013-01-10 23:53:00,
2013-01-10 18:55:00,35.6,23.1,30.42,NNW,332,0.0,0.0,60,0.00,,SKC,0.00,VWS V14.01,2013-01-10 23:55:00,
2013-01-10 18:58:00,35.3,22.8,30.42,NNW,333,1.0,1.0,60,0.00,,SKC,0.00,VWS V14.01,2013-01-10 23:58:00,
2013-01-10 19:00:00,35.2,22.7,30.42,NNW,333,0.0,2.0,60,0.00,,SKC,0.00,VWS V14.01,2013-01-11 00:00:00,
2013-01-10 19:01:00,35.2,22.7,30.42,NNW,333,0.0,0.0,60,0.00,,SKC,0.00,VWS V14.01,2013-01-11 00:01:00,
2013-01-10 19:03:00,35.0,22.5,30.42,North,354,4.0,4.0,60,0.00,,SKC,0.00,VWS V14.01,2013-01-11 00:03:00,
2013-01-10 19:05:00,35.0,22.9,30.42,NNW,342,2.0,4.0,61,0.00,,SKC,0.00,VWS V14.01,2013-01-11 00:05:00,
2013-01-10 19:06:00,35.3,23.2,30.42,NNW,342,0.0,2.0,61,0.00,,SKC,0.00,VWS V14.01,2013-01-11 00:06:00,
2013-01-10 19:08:00,35.8,22.9,30.42,NNW,342,0.0,2.0,59,0.00,,SKC,0.00,VWS V14.01,2013-01-11 00:08:00,
2013-01-10 19:10:00,36.0,23.1,30.42,NNW,342,0.0,2.0,59,0.00,,SKC,0.00,VWS V14.01,2013-01-11 00:10:00,
2013-01-10 19:11:00,36.2,22.5,30.42,NNW,342,0.0,0.0,57,0.00,,SKC,0.00,VWS V14.01,2013-01-11 00:11:00,
2013-01-10 19:13:00,36.5,22.3,30.43,North,359,1.0,5.0,56,0.00,,SKC,0.00,VWS V14.01,2013-01-11 00:13:00,
2013-01-10 19:15:00,36.6,22.4,30.43,SSE,160,0.0,5.0,56,0.00,,SKC,0.00,VWS V14.01,2013-01-11 00:15:00,
2013-01-10 19:16:00,36.9,22.7,30.43,North,356,0.0,6.0,56,0.00,,SKC,0.00,VWS V14.01,2013-01-11 00:16:00,
2013-01-10 19:18:00,37.3,23.1,30.43,North,356,0.0,6.0,56,0.00,,SKC,0.00,VWS V14.01,2013-01-11 00:18:00,
2013-01-10 19:19:00,37.3,23.1,30.43,North,356,0.0,6.0,56,0.00,,SKC,0.00,VWS V14.01,2013-01-11 00:19:00,
2013-01-10 19:20:00,37.3,23.1,30.43,North,356,0.0,6.0,56,0.00,,SKC,0.00,VWS V14.01,2013-01-11 00:20:00,
2013-01-10 19:21:00,37.5,23.2,30.43,North,356,0.0,0.0,56,0.00,,SKC,0.00,VWS V14.01,2013-01-11 00:21:00,
2013-01-10 19:24:00,37.5,23.2,30.43,North,356,0.0,1.0,56,0.00,,SKC,0.00,VWS V14.01,2013-01-11 00:24:00,
2013-01-10 19:25:00,37.5,23.2,30.43,North,356,0.0,1.0,56,0.00,,SKC,0.00,VWS V14.01,2013-01-11 00:25:00,
2013-01-10 19:26:00,37.5,23.2,30.43,North,356,0.0,0.0,56,0.00,,SKC,0.00,VWS V14.01,2013-01-11 00:26:00,
2013-01-10 19:29:00,37.5,22.4,30.43,North,354,0.0,1.0,54,0.00,,SKC,0.00,VWS V14.01,2013-01-11 00:29:00,
2013-01-10 19:30:00,37.5,22.4,30.43,SE,141,1.0,1.0,54,0.00,,SKC,0.00,VWS V14.01,2013-01-11 00:30:00,
2013-01-10 19:31:00,37.3,22.2,30.43,North,350,0.0,3.0,54,0.00,,SKC,0.00,VWS V14.01,2013-01-11 00:31:00,
2013-01-10 19:34:00,37.3,22.2,30.43,NNW,330,1.0,6.0,54,0.00,,SKC,0.00,VWS V14.01,2013-01-11 00:34:00,
2013-01-10 19:35:00,37.3,22.2,30.43,NNW,330,1.0,1.0,54,0.00,,SKC,0.00,VWS V14.01,2013-01-11 00:35:00,
2013-01-10 19:37:00,37.5,22.4,30.43,North,357,2.0,2.0,54,0.00,,SKC,0.00,VWS V14.01,2013-01-11 00:37:00,
2013-01-10 19:39:00,37.5,22.4,30.43,North,357,0.0,0.0,54,0.00,,SKC,0.00,VWS V14.01,2013-01-11 00:39:00,
2013-01-10 19:40:00,37.5,21.9,30.43,North,357,0.0,0.0,53,0.00,,SKC,0.00,VWS V14.01,2013-01-11 00:40:00,
2013-01-10 19:42:00,37.6,22.0,30.43,NNW,343,4.0,4.0,53,0.00,,SKC,0.00,VWS V14.01,2013-01-11 00:42:00,
2013-01-10 19:44:00,37.6,22.0,30.44,NNW,342,0.0,0.0,53,0.00,,SKC,0.00,VWS V14.01,2013-01-11 00:44:00,
2013-01-10 19:45:00,37.6,22.5,30.44,NNW,343,0.0,0.0,54,0.00,,SKC,0.00,VWS V14.01,2013-01-11 00:45:00,
2013-01-10 19:48:00,37.5,22.4,30.44,NNW,337,1.0,2.0,54,0.00,,SKC,0.00,VWS V14.01,2013-01-11 00:48:00,
2013-01-10 19:50:00,37.5,22.4,30.44,NNW,337,1.0,1.0,54,0.00,,SKC,0.00,VWS V14.01,2013-01-11 00:50:00,
2013-01-10 19:51:00,37.5,22.4,30.44,NNW,337,1.0,1.0,54,0.00,,SKC,0.00,VWS V14.01,2013-01-11 00:51:00,
2013-01-10 19:53:00,37.5,22.4,30.44,SE,143,0.0,1.0,54,0.00,,SKC,0.00,VWS V14.01,2013-01-11 00:53:00,
2013-01-10 19:55:00,37.5,22.4,30.44,SE,143,0.0,0.0,54,0.00,,SKC,0.00,VWS V14.01,2013-01-11 00:55:00,
2013-01-10 19:56:00,37.5,22.4,30.44,North,357,0.0,0.0,54,0.00,,SKC,0.00,VWS V14.01,2013-01-11 00:56:00,
2013-01-10 19:58:00,37.3,21.8,30.44,NNW,332,0.0,8.0,53,0.00,,SKC,0.00,VWS V14.01,2013-01-11 00:58:00,
2013-01-10 20:00:00,37.5,21.9,30.45,NNW,333,0.0,1.0,53,0.00,,SKC,0.00,VWS V14.01,2013-01-11 01:00:00,
2013-01-10 20:01:00,37.5,21.9,30.45,NNW,333,0.0,1.0,53,0.00,,SKC,0.00,VWS V14.01,2013-01-11 01:01:00,
2013-01-10 20:03:00,37.5,22.4,30.45,NNW,342,1.0,5.0,54,0.00,,SKC,0.00,VWS V14.01,2013-01-11 01:03:00,
2013-01-10 20:05:00,37.3,22.2,30.45,NNW,342,0.0,0.0,54,0.00,,SKC,0.00,VWS V14.01,2013-01-11 01:05:00,
2013-01-10 20:07:00,37.3,21.8,30.45,NNW,342,0.0,0.0,53,0.00,,SKC,0.00,VWS V14.01,2013-01-11 01:07:00,
2013-01-10 20:09:00,37.3,21.8,30.45,NNW,342,0.0,0.0,53,0.00,,SKC,0.00,VWS V14.01,2013-01-11 01:09:00,
2013-01-10 20:10:00,37.3,22.2,30.45,NNW,342,0.0,0.0,54,0.00,,SKC,0.00,VWS V14.01,2013-01-11 01:10:00,
2013-01-10 20:12:00,37.2,22.1,30.45,NNW,342,0.0,0.0,54,0.00,,SKC,0.00,VWS V14.01,2013-01-11 01:12:00,
2013-01-10 20:14:00,37.2,22.1,30.45,NNW,340,0.0,0.0,54,0.00,,SKC,0.00,VWS V14.01,2013-01-11 01:14:00,
2013-01-10 20:15:00,37.0,21.9,30.45,NNW,342,0.0,0.0,54,0.00,,SKC,0.00,VWS V14.01,2013-01-11 01:15:00,
2013-01-10 20:18:00,36.9,21.8,30.45,NNW,342,0.0,0.0,54,0.00,,SKC,0.00,VWS V14.01,2013-01-11 01:18:00,
2013-01-10 20:19:00,36.9,22.3,30.45,NNW,342,0.0,0.0,55,0.00,,SKC,0.00,VWS V14.01,2013-01-11 01:19:00,
2013-01-10 20:20:00,36.8,22.2,30.45,NNW,342,0.0,0.0,55,0.00,,SKC,0.00,VWS V14.01,2013-01-11 01:20:00,
2013-01-10 20:23:00,36.6,22.4,30.45,NNW,344,1.0,1.0,56,0.00,,SKC,0.00,VWS V14.01,2013-01-11 01:23:00,
2013-01-10 20:24:00,36.6,22.4,30.45,NNW,344,0.0,1.0,56,0.00,,SKC,0.00,VWS V14.01,2013-01-11 01:24:00,
2013-01-10 20:25:00,36.6,22.4,30.45,NNW,344,0.0,0.0,56,0.00,,SKC,0.00,VWS V14.01,2013-01-11 01:25:00,
2013-01-10 20:28:00,36.5,22.3,30.45,NNW,344,0.0,0.0,56,0.00,,SKC,0.00,VWS V14.01,2013-01-11 01:28:00,
2013-01-10 20:29:00,36.3,22.1,30.45,NNW,343,0.0,0.0,56,0.00,,SKC,0.00,VWS V14.01,2013-01-11 01:29:00,
2013-01-10 20:30:00,36.3,22.1,30.45,NNW,343,0.0,0.0,56,0.00,,SKC,0.00,VWS V14.01,2013-01-11 01:30:00,
2013-01-10 20:33:00,36.0,22.7,30.45,NNW,344,0.0,0.0,58,0.00,,SKC,0.00,VWS V14.01,2013-01-11 01:33:00,
2013-01-10 20:34:00,35.9,22.6,30.45,NNW,344,0.0,0.0,58,0.00,,SKC,0.00,VWS V14.01,2013-01-11 01:34:00,
2013-01-10 20:35:00,35.9,22.6,30.45,NNW,343,0.0,0.0,58,0.00,,SKC,0.00,VWS V14.01,2013-01-11 01:35:00,
2013-01-10 20:36:00,35.8,22.5,30.45,NNW,343,0.0,0.0,58,0.00,,SKC,0.00,VWS V14.01,2013-01-11 01:36:00,
2013-01-10 20:38:00,35.8,22.5,30.45,NNW,344,0.0,0.0,58,0.00,,SKC,0.00,VWS V14.01,2013-01-11 01:38:00,
2013-01-10 20:39:00,35.5,22.2,30.45,NNW,344,0.0,0.0,58,0.00,,SKC,0.00,VWS V14.01,2013-01-11 01:39:00,
2013-01-10 20:40:00,35.5,22.2,30.45,NNW,344,0.0,0.0,58,0.00,,SKC,0.00,VWS V14.01,2013-01-11 01:40:00,
2013-01-10 20:42:00,35.3,22.0,30.45,NNW,344,0.0,0.0,58,0.00,,SKC,0.00,VWS V14.01,2013-01-11 01:42:00,
2013-01-10 20:44:00,35.3,22.0,30.45,NNW,344,0.0,0.0,58,0.00,,SKC,0.00,VWS V14.01,2013-01-11 01:44:00,
2013-01-10 20:45:00,35.3,22.0,30.45,NNW,344,0.0,0.0,58,0.00,,SKC,0.00,VWS V14.01,2013-01-11 01:45:00,
2013-01-10 20:47:00,35.3,22.0,30.45,NNW,344,0.0,0.0,58,0.00,,SKC,0.00,VWS V14.01,2013-01-11 01:47:00,
2013-01-10 20:49:00,35.3,22.0,30.45,North,350,0.0,0.0,58,0.00,,SKC,0.00,VWS V14.01,2013-01-11 01:49:00,
2013-01-10 20:50:00,35.3,22.0,30.45,North,350,0.0,0.0,58,0.00,,SKC,0.00,VWS V14.01,2013-01-11 01:50:00,
2013-01-10 20:53:00,35.3,22.0,30.45,North,350,0.0,0.0,58,0.00,,SKC,0.00,VWS V14.01,2013-01-11 01:53:00,
2013-01-10 20:54:00,35.3,22.0,30.45,North,349,0.0,0.0,58,0.00,,SKC,0.00,VWS V14.01,2013-01-11 01:54:00,
2013-01-10 20:55:00,35.3,22.0,30.45,North,349,0.0,0.0,58,0.00,,SKC,0.00,VWS V14.01,2013-01-11 01:55:00,
2013-01-10 20:58:00,35.2,22.3,30.45,North,350,0.0,0.0,59,0.00,,SKC,0.00,VWS V14.01,2013-01-11 01:58:00,
2013-01-10 21:00:00,35.2,22.3,30.47,North,349,0.0,0.0,59,0.00,,SKC,0.00,VWS V14.01,2013-01-11 02:00:00,
2013-01-10 21:04:00,35.0,22.5,30.47,North,349,0.0,0.0,60,0.00,,SKC,0.00,VWS V14.01,2013-01-11 02:04:00,
2013-01-10 21:05:00,34.9,22.0,30.47,North,350,2.0,2.0,59,0.00,,SKC,0.00,VWS V14.01,2013-01-11 02:05:00,
2013-01-10 21:09:00,35.0,22.1,30.47,North,350,0.0,2.0,59,0.00,,SKC,0.00,VWS V14.01,2013-01-11 02:09:00,
2013-01-10 21:10:00,35.0,22.1,30.47,NNW,333,1.0,5.0,59,0.00,,SKC,0.00,VWS V14.01,2013-01-11 02:10:00,
2013-01-10 21:14:00,35.2,22.3,30.48,NNW,333,0.0,5.0,59,0.00,,SKC,0.00,VWS V14.01,2013-01-11 02:14:00,
2013-01-10 21:15:00,35.2,22.3,30.48,NNW,333,0.0,0.0,59,0.00,,SKC,0.00,VWS V14.01,2013-01-11 02:15:00,
2013-01-10 21:20:00,34.9,22.4,30.48,NNW,333,0.0,0.0,60,0.00,,SKC,0.00,VWS V14.01,2013-01-11 02:20:00,
2013-01-10 21:21:00,34.9,22.4,30.48,NNW,333,0.0,0.0,60,0.00,,SKC,0.00,VWS V14.01,2013-01-11 02:21:00,
2013-01-10 21:25:00,34.7,22.2,30.48,NNW,333,0.0,0.0,60,0.00,,SKC,0.00,VWS V14.01,2013-01-11 02:25:00,
2013-01-10 21:26:00,34.7,22.2,30.48,NNW,333,0.0,0.0,60,0.00,,SKC,0.00,VWS V14.01,2013-01-11 02:26:00,
2013-01-10 21:30:00,34.6,22.5,30.48,NNW,333,0.0,0.0,61,0.00,,SKC,0.00,VWS V14.01,2013-01-11 02:30:00,
2013-01-10 21:31:00,34.4,22.4,30.48,NNW,333,0.0,0.0,61,0.00,,SKC,0.00,VWS V14.01,2013-01-11 02:31:00,
2013-01-10 21:35:00,34.1,22.5,30.48,NNW,333,1.0,1.0,62,0.00,,SKC,0.00,VWS V14.01,2013-01-11 02:35:00,
2013-01-10 21:36:00,34.1,22.5,30.48,NNW,333,0.0,3.0,62,0.00,,SKC,0.00,VWS V14.01,2013-01-11 02:36:00,
2013-01-10 21:37:00,34.1,22.5,30.48,NNW,335,0.0,3.0,62,0.00,,SKC,0.00,VWS V14.01,2013-01-11 02:37:00,
2013-01-10 21:40:00,34.0,22.7,30.48,NNW,335,0.0,3.0,63,0.00,,SKC,0.00,VWS V14.01,2013-01-11 02:40:00,
2013-01-10 21:41:00,33.8,22.5,30.48,NNW,333,0.0,0.0,63,0.00,,SKC,0.00,VWS V14.01,2013-01-11 02:41:00,
2013-01-10 21:42:00,33.8,22.5,30.48,NNW,333,0.0,0.0,63,0.00,,SKC,0.00,VWS V14.01,2013-01-11 02:42:00,
2013-01-10 21:45:00,33.7,22.5,30.48,NNW,332,0.0,0.0,63,0.00,,SKC,0.00,VWS V14.01,2013-01-11 02:45:00,
2013-01-10 21:46:00,33.5,22.6,30.48,NNW,333,0.0,0.0,64,0.00,,SKC,0.00,VWS V14.01,2013-01-11 02:46:00,
2013-01-10 21:47:00,33.5,22.6,30.48,NNW,335,0.0,0.0,64,0.00,,SKC,0.00,VWS V14.01,2013-01-11 02:47:00,
2013-01-10 21:50:00,33.5,22.6,30.48,NNW,333,1.0,2.0,64,0.00,,SKC,0.00,VWS V14.01,2013-01-11 02:50:00,
2013-01-10 21:52:00,33.5,22.6,30.48,NNW,329,2.0,2.0,64,0.00,,SKC,0.00,VWS V14.01,2013-01-11 02:52:00,
2013-01-10 21:55:00,33.8,22.6,30.48,NNW,337,2.0,2.0,63,0.00,,SKC,0.00,VWS V14.01,2013-01-11 02:55:00,
2013-01-10 21:57:00,34.1,22.1,30.48,NNW,337,0.0,2.0,61,0.00,,SKC,0.00,VWS V14.01,2013-01-11 02:57:00,
2013-01-10 22:00:00,34.3,21.9,30.49,North,359,2.0,2.0,60,0.00,,SKC,0.00,VWS V14.01,2013-01-11 03:00:00,
2013-01-10 22:02:00,34.6,21.8,30.49,NNW,337,1.0,6.0,59,0.00,,SKC,0.00,VWS V14.01,2013-01-11 03:02:00,
2013-01-10 22:03:00,34.7,21.9,30.49,North,352,3.0,6.0,59,0.00,,SKC,0.00,VWS V14.01,2013-01-11 03:03:00,
2013-01-10 22:05:00,34.9,22.0,30.49,North,352,2.0,6.0,59,0.00,,SKC,0.00,VWS V14.01,2013-01-11 03:05:00,
2013-01-10 22:08:00,35.0,21.7,30.49,North,356,0.0,3.0,58,0.00,,SKC,0.00,VWS V14.01,2013-01-11 03:08:00,
2013-01-10 22:09:00,35.0,21.7,30.49,North,354,0.0,3.0,58,0.00,,SKC,0.00,VWS V14.01,2013-01-11 03:09:00,
2013-01-10 22:10:00,35.2,21.9,30.49,North,356,0.0,3.0,58,0.00,,SKC,0.00,VWS V14.01,2013-01-11 03:10:00,
2013-01-10 22:13:00,35.2,21.9,30.49,North,353,0.0,2.0,58,0.00,,SKC,0.00,VWS V14.01,2013-01-11 03:13:00,
2013-01-10 22:14:00,35.2,21.9,30.49,North,353,0.0,2.0,58,0.00,,SKC,0.00,VWS V14.01,2013-01-11 03:14:00,
2013-01-10 22:15:00,35.0,21.7,30.49,North,353,0.0,2.0,58,0.00,,SKC,0.00,VWS V14.01,2013-01-11 03:15:00,
2013-01-10 22:18:00,35.0,22.1,30.49,North,352,0.0,0.0,59,0.00,,SKC,0.00,VWS V14.01,2013-01-11 03:18:00,
2013-01-10 22:19:00,34.9,22.0,30.49,North,352,0.0,0.0,59,0.00,,SKC,0.00,VWS V14.01,2013-01-11 03:19:00,
2013-01-10 22:20:00,34.9,22.0,30.49,North,353,0.0,0.0,59,0.00,,SKC,0.00,VWS V14.01,2013-01-11 03:20:00,
2013-01-10 22:23:00,34.6,22.2,30.49,North,352,0.0,0.0,60,0.00,,SKC,0.00,VWS V14.01,2013-01-11 03:23:00,
2013-01-10 22:24:00,34.6,22.2,30.49,North,353,0.0,0.0,60,0.00,,SKC,0.00,VWS V14.01,2013-01-11 03:24:00,
2013-01-10 22:25:00,34.6,22.2,30.49,North,353,0.0,0.0,60,0.00,,SKC,0.00,VWS V14.01,2013-01-11 03:25:00,
2013-01-10 22:29:00,34.3,21.9,30.49,North,353,0.0,0.0,60,0.00,,SKC,0.00,VWS V14.01,2013-01-11 03:29:00,
2013-01-10 22:30:00,34.3,21.9,30.49,North,353,0.0,0.0,60,0.00,,SKC,0.00,VWS V14.01,2013-01-11 03:30:00,
2013-01-10 22:34:00,34.0,22.0,30.49,North,353,0.0,0.0,61,0.00,,SKC,0.00,VWS V14.01,2013-01-11 03:34:00,
2013-01-10 22:35:00,34.0,22.0,30.49,North,353,0.0,0.0,61,0.00,,SKC,0.00,VWS V14.01,2013-01-11 03:35:00,
2013-01-10 22:39:00,33.7,21.7,30.49,North,353,0.0,0.0,61,0.00,,SKC,0.00,VWS V14.01,2013-01-11 03:39:00,
2013-01-10 22:40:00,33.7,21.7,30.49,North,353,0.0,0.0,61,0.00,,SKC,0.00,VWS V14.01,2013-01-11 03:40:00,
2013-01-10 22:45:00,33.5,21.9,30.49,North,353,0.0,0.0,62,0.00,,SKC,0.00,VWS V14.01,2013-01-11 03:45:00,
2013-01-10 22:50:00,33.1,21.9,30.49,North,353,0.0,0.0,63,0.00,,SKC,0.00,VWS V14.01,2013-01-11 03:50:00,
2013-01-10 22:55:00,32.7,21.9,30.49,North,353,0.0,0.0,64,0.00,,SKC,0.00,VWS V14.01,2013-01-11 03:55:00,
2013-01-10 22:56:00,32.7,21.9,30.49,North,353,0.0,0.0,64,0.00,,SKC,0.00,VWS V14.01,2013-01-11 03:56:00,
2013-01-10 23:00:00,32.2,21.8,30.49,North,353,0.0,0.0,65,0.00,,SKC,0.00,VWS V14.01,2013-01-11 04:00:00,
2013-01-10 23:01:00,32.2,21.8,30.49,North,353,0.0,0.0,65,0.00,,SKC,0.00,VWS V14.01,2013-01-11 04:01:00,
2013-01-10 23:05:00,32.1,21.7,30.49,North,353,0.0,0.0,65,0.00,,SKC,0.00,VWS V14.01,2013-01-11 04:05:00,
2013-01-10 23:06:00,32.1,21.7,30.49,North,353,0.0,0.0,65,0.00,,SKC,0.00,VWS V14.01,2013-01-11 04:06:00,
2013-01-10 23:10:00,31.9,21.5,30.49,North,353,0.0,0.0,65,0.00,,SKC,0.00,VWS V14.01,2013-01-11 04:10:00,
2013-01-10 23:11:00,31.9,21.5,30.49,North,353,0.0,0.0,65,0.00,,SKC,0.00,VWS V14.01,2013-01-11 04:11:00,
2013-01-10 23:12:00,31.9,21.5,30.49,North,353,0.0,0.0,65,0.00,,SKC,0.00,VWS V14.01,2013-01-11 04:12:00,
2013-01-10 23:15:00,31.9,21.5,30.48,North,353,0.0,0.0,65,0.00,,SKC,0.00,VWS V14.01,2013-01-11 04:15:00,
2013-01-10 23:16:00,31.8,21.4,30.48,North,353,0.0,0.0,65,0.00,,SKC,0.00,VWS V14.01,2013-01-11 04:16:00,
2013-01-10 23:17:00,31.8,21.4,30.48,North,353,0.0,0.0,65,0.00,,SKC,0.00,VWS V14.01,2013-01-11 04:17:00,
2013-01-10 23:20:00,31.6,21.9,30.48,North,353,0.0,0.0,67,0.00,,SKC,0.00,VWS V14.01,2013-01-11 04:20:00,
2013-01-10 23:21:00,31.5,22.2,30.48,North,353,0.0,0.0,68,0.00,,SKC,0.00,VWS V14.01,2013-01-11 04:21:00,
2013-01-10 23:22:00,31.3,22.0,30.48,North,353,0.0,0.0,68,0.00,,SKC,0.00,VWS V14.01,2013-01-11 04:22:00,
2013-01-10 23:25:00,31.2,21.9,30.48,North,353,0.0,0.0,68,0.00,,SKC,0.00,VWS V14.01,2013-01-11 04:25:00,
2013-01-10 23:26:00,31.0,21.7,30.48,North,353,0.0,0.0,68,0.00,,SKC,0.00,VWS V14.01,2013-01-11 04:26:00,
2013-01-10 23:27:00,31.0,21.7,30.48,North,353,0.0,0.0,68,0.00,,SKC,0.00,VWS V14.01,2013-01-11 04:27:00,
2013-01-10 23:30:00,31.0,21.7,30.48,North,353,0.0,0.0,68,0.00,,SKC,0.00,VWS V14.01,2013-01-11 04:30:00,
2013-01-10 23:31:00,30.9,21.9,30.48,North,353,0.0,0.0,69,0.00,,SKC,0.00,VWS V14.01,2013-01-11 04:31:00,
2013-01-10 23:32:00,30.9,21.9,30.48,North,353,0.0,0.0,69,0.00,,SKC,0.00,VWS V14.01,2013-01-11 04:32:00,
2013-01-10 23:35:00,30.9,21.9,30.48,North,353,0.0,0.0,69,0.00,,SKC,0.00,VWS V14.01,2013-01-11 04:35:00,
2013-01-10 23:36:00,30.9,21.9,30.48,North,353,0.0,0.0,69,0.00,,SKC,0.00,VWS V14.01,2013-01-11 04:36:00,
2013-01-10 23:38:00,30.9,21.9,30.48,North,353,0.0,0.0,69,0.00,,SKC,0.00,VWS V14.01,2013-01-11 04:38:00,
2013-01-10 23:40:00,30.7,21.8,30.48,North,353,0.0,0.0,69,0.00,,SKC,0.00,VWS V14.01,2013-01-11 04:40:00,
2013-01-10 23:41:00,30.7,21.8,30.48,North,353,0.0,0.0,69,0.00,,SKC,0.00,VWS V14.01,2013-01-11 04:41:00,
2013-01-10 23:43:00,30.6,21.6,30.48,North,353,0.0,0.0,69,0.00,,SKC,0.00,VWS V14.01,2013-01-11 04:43:00,
2013-01-10 23:45:00,30.4,21.5,30.48,North,353,0.0,0.0,69,0.00,,SKC,0.00,VWS V14.01,2013-01-11 04:45:00,
2013-01-10 23:46:00,30.3,21.4,30.48,North,353,0.0,0.0,69,0.00,,SKC,0.00,VWS V14.01,2013-01-11 04:46:00,
2013-01-10 23:47:00,30.3,21.4,30.48,North,353,0.0,0.0,69,0.00,,SKC,0.00,VWS V14.01,2013-01-11 04:47:00,
2013-01-10 23:48:00,30.1,22.2,30.48,North,353,0.0,0.0,72,0.00,,SKC,0.00,VWS V14.01,2013-01-11 04:48:00,
2013-01-10 23:50:00,30.0,22.1,30.48,North,353,0.0,0.0,72,0.00,,SKC,0.00,VWS V14.01,2013-01-11 04:50:00,
2013-01-10 23:52:00,29.8,21.6,30.48,North,353,0.0,0.0,71,0.00,,SKC,0.00,VWS V14.01,2013-01-11 04:52:00,
2013-01-10 23:53:00,29.7,21.5,30.48,North,353,0.0,0.0,71,0.00,,SKC,0.00,VWS V14.01,2013-01-11 04:53:00,
2013-01-10 23:55:00,31.5,21.8,30.48,NNW,346,0.0,6.0,67,0.00,,SKC,0.00,VWS V14.01,2013-01-11 04:55:00,
2013-01-10 23:58:00,29.5,21.3,30.48,North,353,0.0,0.0,71,0.00,,SKC,0.00,VWS V14.01,2013-01-11 04:58:00,
2013-01-10 23:59:00,29.5,21.3,30.49,North,353,0.0,0.0,71,0.00,,SKC,0.00,VWS V14.01,2013-01-11 04:59:00,